www.cux-wetter.de
Wetterdaten: Dienstag, 15.12.2015
Datum Zeit Temp. A. Feuchte A. Luftdruck Regen Wind Richtung Richtung Sonnenschein Solar Taupunkt Windchill Windben
15.12.2015 00:00 5,0 C 95 % 1018,1 hPa 0,0 l/m 5,6 km/h (2 Bft) O-SO 118 0 min 0 W/m 4,3 C 5,0 C 9,7 km/h (2 Bft)
15.12.2015 00:03 5,0 C 96 % 1018,1 hPa 0,0 l/m 4,2 km/h (1 Bft) O-SO 116 0 min 0 W/m 4,4 C 5,0 C 6,4 km/h (2 Bft)
15.12.2015 00:06 5,0 C 96 % 1018,1 hPa 0,0 l/m 3,5 km/h (1 Bft) S-SO 163 0 min 0 W/m 4,4 C 5,0 C 8,0 km/h (2 Bft)
15.12.2015 00:09 5,0 C 96 % 1018,2 hPa 0,0 l/m 2,5 km/h (1 Bft) W-SW 238 0 min 0 W/m 4,4 C 5,0 C 6,4 km/h (2 Bft)
15.12.2015 00:12 5,0 C 96 % 1018,2 hPa 0,0 l/m 2,2 km/h (1 Bft) S 191 0 min 0 W/m 4,4 C 5,0 C 6,4 km/h (2 Bft)
15.12.2015 00:15 5,0 C 96 % 1018,2 hPa 0,0 l/m 3,0 km/h (1 Bft) S 178 0 min 0 W/m 4,4 C 5,0 C 4,8 km/h (1 Bft)
15.12.2015 00:18 5,0 C 96 % 1018,3 hPa 0,0 l/m 2,2 km/h (1 Bft) S-SO 162 0 min 0 W/m 4,4 C 5,0 C 6,4 km/h (2 Bft)
15.12.2015 00:21 5,0 C 96 % 1018,2 hPa 0,0 l/m 2,4 km/h (1 Bft) S-SO 162 0 min 0 W/m 4,4 C 5,0 C 6,4 km/h (2 Bft)
15.12.2015 00:24 5,0 C 96 % 1018,3 hPa 0,0 l/m 2,1 km/h (1 Bft) S-SO 162 0 min 0 W/m 4,4 C 5,0 C 6,4 km/h (2 Bft)
15.12.2015 00:27 5,0 C 96 % 1018,3 hPa 0,0 l/m 1,8 km/h (1 Bft) S-SO 162 0 min 0 W/m 4,4 C 5,0 C 3,2 km/h (1 Bft)
15.12.2015 00:30 5,0 C 96 % 1018,3 hPa 0,0 l/m 2,3 km/h (1 Bft) S-SO 162 0 min 0 W/m 4,4 C 5,0 C 3,2 km/h (1 Bft)
15.12.2015 00:33 5,0 C 96 % 1018,3 hPa 0,0 l/m 1,4 km/h (1 Bft) S-SO 162 0 min 0 W/m 4,4 C 5,0 C 3,2 km/h (1 Bft)
15.12.2015 00:36 5,0 C 96 % 1018,3 hPa 0,0 l/m 1,6 km/h (1 Bft) S-SO 162 0 min 0 W/m 4,4 C 5,0 C 3,2 km/h (1 Bft)
15.12.2015 00:39 5,0 C 96 % 1018,3 hPa 0,0 l/m 2,2 km/h (1 Bft) S-SO 167 0 min 0 W/m 4,4 C 5,0 C 4,8 km/h (1 Bft)
15.12.2015 00:42 5,0 C 96 % 1018,3 hPa 0,0 l/m 2,6 km/h (1 Bft) S-SO 167 0 min 0 W/m 4,4 C 5,0 C 6,4 km/h (2 Bft)
15.12.2015 00:45 5,0 C 96 % 1018,3 hPa 0,0 l/m 2,1 km/h (1 Bft) S-SO 167 0 min 0 W/m 4,4 C 5,0 C 4,8 km/h (1 Bft)
15.12.2015 00:48 5,1 C 96 % 1018,3 hPa 0,0 l/m 1,4 km/h (1 Bft) S-SO 167 0 min 0 W/m 4,5 C 5,1 C 4,8 km/h (1 Bft)
15.12.2015 00:51 5,1 C 96 % 1018,3 hPa 0,0 l/m 2,7 km/h (1 Bft) S-SO 167 0 min 0 W/m 4,5 C 5,1 C 6,4 km/h (2 Bft)
15.12.2015 00:54 5,1 C 96 % 1018,3 hPa 0,0 l/m 3,1 km/h (1 Bft) S 169 0 min 0 W/m 4,5 C 5,1 C 6,4 km/h (2 Bft)
15.12.2015 00:57 5,1 C 96 % 1018,4 hPa 0,0 l/m 2,8 km/h (1 Bft) S 169 0 min 0 W/m 4,5 C 5,1 C 6,4 km/h (2 Bft)
15.12.2015 01:00 5,1 C 96 % 1018,3 hPa 0,0 l/m 2,4 km/h (1 Bft) S 169 0 min 0 W/m 4,5 C 5,1 C 6,4 km/h (2 Bft)
15.12.2015 01:03 5,2 C 96 % 1018,3 hPa 0,0 l/m 2,5 km/h (1 Bft) S 173 0 min 0 W/m 4,6 C 5,2 C 8,0 km/h (2 Bft)
15.12.2015 01:06 5,2 C 96 % 1018,3 hPa 0,0 l/m 2,2 km/h (1 Bft) S 173 0 min 0 W/m 4,6 C 5,2 C 4,8 km/h (1 Bft)
15.12.2015 01:09 5,2 C 96 % 1018,2 hPa 0,0 l/m 3,0 km/h (1 Bft) S 173 0 min 0 W/m 4,6 C 5,2 C 4,8 km/h (1 Bft)
15.12.2015 01:12 5,2 C 96 % 1018,3 hPa 0,0 l/m 1,9 km/h (1 Bft) S 172 0 min 0 W/m 4,6 C 5,2 C 4,8 km/h (1 Bft)
15.12.2015 01:15 5,2 C 96 % 1018,3 hPa 0,0 l/m 2,0 km/h (1 Bft) S 172 0 min 0 W/m 4,6 C 5,2 C 4,8 km/h (1 Bft)
15.12.2015 01:18 5,2 C 96 % 1018,2 hPa 0,0 l/m 1,1 km/h (1 Bft) S 172 0 min 0 W/m 4,6 C 5,2 C 1,6 km/h (1 Bft)
15.12.2015 01:21 5,3 C 96 % 1018,3 hPa 0,0 l/m 1,6 km/h (1 Bft) S 181 0 min 0 W/m 4,7 C 5,3 C 3,2 km/h (1 Bft)
15.12.2015 01:24 5,3 C 96 % 1018,3 hPa 0,0 l/m 2,1 km/h (1 Bft) S 181 0 min 0 W/m 4,7 C 5,3 C 6,4 km/h (2 Bft)
15.12.2015 01:27 5,3 C 96 % 1018,3 hPa 0,0 l/m 1,4 km/h (1 Bft) S 181 0 min 0 W/m 4,7 C 5,3 C 3,2 km/h (1 Bft)
15.12.2015 01:30 5,3 C 96 % 1018,3 hPa 0,0 l/m 1,1 km/h (1 Bft) S 189 0 min 0 W/m 4,7 C 5,3 C 4,8 km/h (1 Bft)
15.12.2015 01:33 5,3 C 96 % 1018,3 hPa 0,0 l/m 3,9 km/h (1 Bft) S 191 0 min 0 W/m 4,7 C 5,3 C 6,4 km/h (2 Bft)
15.12.2015 01:36 5,3 C 96 % 1018,3 hPa 0,0 l/m 3,5 km/h (1 Bft) S-SW 196 0 min 0 W/m 4,7 C 5,3 C 6,4 km/h (2 Bft)
15.12.2015 01:39 5,4 C 96 % 1018,3 hPa 0,0 l/m 4,8 km/h (1 Bft) S-SW 204 0 min 0 W/m 4,8 C 5,4 C 8,0 km/h (2 Bft)
15.12.2015 01:42 5,4 C 96 % 1018,3 hPa 0,0 l/m 4,6 km/h (1 Bft) S-SW 211 0 min 0 W/m 4,8 C 5,4 C 9,7 km/h (2 Bft)
15.12.2015 01:45 5,6 C 96 % 1018,4 hPa 0,0 l/m 5,5 km/h (2 Bft) SW 223 0 min 0 W/m 5,0 C 5,6 C 11,3 km/h (2 Bft)
15.12.2015 01:48 5,6 C 96 % 1018,4 hPa 0,0 l/m 4,1 km/h (1 Bft) S-SW 197 0 min 0 W/m 5,0 C 5,6 C 6,4 km/h (2 Bft)
15.12.2015 01:51 5,7 C 97 % 1018,4 hPa 0,0 l/m 3,3 km/h (1 Bft) S-SW 196 0 min 0 W/m 5,3 C 5,7 C 6,4 km/h (2 Bft)
15.12.2015 01:54 5,7 C 97 % 1018,4 hPa 0,0 l/m 4,0 km/h (1 Bft) S-SW 210 0 min 0 W/m 5,3 C 5,7 C 6,4 km/h (2 Bft)
15.12.2015 01:57 5,7 C 97 % 1018,4 hPa 0,0 l/m 3,6 km/h (1 Bft) S 184 0 min 0 W/m 5,3 C 5,7 C 6,4 km/h (2 Bft)
15.12.2015 02:00 5,8 C 97 % 1018,4 hPa 0,0 l/m 4,8 km/h (1 Bft) SW 222 0 min 0 W/m 5,4 C 5,8 C 8,0 km/h (2 Bft)
15.12.2015 02:03 5,8 C 97 % 1018,4 hPa 0,0 l/m 4,4 km/h (1 Bft) S-SO 163 0 min 0 W/m 5,4 C 5,8 C 6,4 km/h (2 Bft)
15.12.2015 02:06 5,8 C 96 % 1018,4 hPa 0,0 l/m 3,9 km/h (1 Bft) S-SW 196 0 min 0 W/m 5,2 C 5,8 C 8,0 km/h (2 Bft)
15.12.2015 02:09 5,8 C 96 % 1018,4 hPa 0,0 l/m 2,3 km/h (1 Bft) S-SW 196 0 min 0 W/m 5,2 C 5,8 C 4,8 km/h (1 Bft)
15.12.2015 02:12 5,8 C 96 % 1018,4 hPa 0,0 l/m 2,7 km/h (1 Bft) S-SW 197 0 min 0 W/m 5,2 C 5,8 C 6,4 km/h (2 Bft)
15.12.2015 02:15 5,8 C 96 % 1018,3 hPa 0,0 l/m 3,9 km/h (1 Bft) S-SW 211 0 min 0 W/m 5,2 C 5,8 C 8,0 km/h (2 Bft)
15.12.2015 02:18 5,8 C 96 % 1018,4 hPa 0,0 l/m 3,8 km/h (1 Bft) S-SW 201 0 min 0 W/m 5,2 C 5,8 C 8,0 km/h (2 Bft)
15.12.2015 02:21 5,8 C 96 % 1018,4 hPa 0,0 l/m 3,8 km/h (1 Bft) S-SO 164 0 min 0 W/m 5,2 C 5,8 C 6,4 km/h (2 Bft)
15.12.2015 02:24 5,9 C 96 % 1018,5 hPa 0,0 l/m 3,9 km/h (1 Bft) S 178 0 min 0 W/m 5,3 C 5,9 C 8,0 km/h (2 Bft)
15.12.2015 02:27 5,9 C 96 % 1018,5 hPa 0,0 l/m 3,8 km/h (1 Bft) SW 215 0 min 0 W/m 5,3 C 5,9 C 6,4 km/h (2 Bft)
15.12.2015 02:30 5,9 C 96 % 1018,5 hPa 0,0 l/m 4,1 km/h (1 Bft) S-SW 198 0 min 0 W/m 5,3 C 5,9 C 9,7 km/h (2 Bft)
15.12.2015 02:33 5,9 C 96 % 1018,6 hPa 0,0 l/m 4,7 km/h (1 Bft) S-SW 203 0 min 0 W/m 5,3 C 5,9 C 8,0 km/h (2 Bft)
15.12.2015 02:36 5,9 C 97 % 1018,6 hPa 0,0 l/m 5,2 km/h (1 Bft) SW 230 0 min 0 W/m 5,5 C 5,9 C 9,7 km/h (2 Bft)
15.12.2015 02:39 6,0 C 97 % 1018,6 hPa 0,0 l/m 4,8 km/h (1 Bft) S-SW 211 0 min 0 W/m 5,6 C 6,0 C 8,0 km/h (2 Bft)
15.12.2015 02:42 6,0 C 97 % 1018,6 hPa 0,0 l/m 6,3 km/h (2 Bft) S-SW 196 0 min 0 W/m 5,6 C 6,0 C 8,0 km/h (2 Bft)
15.12.2015 02:45 6,1 C 97 % 1018,6 hPa 0,0 l/m 6,4 km/h (2 Bft) S 190 0 min 0 W/m 5,7 C 6,1 C 9,7 km/h (2 Bft)
15.12.2015 02:48 6,1 C 97 % 1018,6 hPa 0,0 l/m 4,6 km/h (1 Bft) SW 219 0 min 0 W/m 5,7 C 6,1 C 8,0 km/h (2 Bft)
15.12.2015 02:51 6,1 C 97 % 1018,6 hPa 0,0 l/m 3,1 km/h (1 Bft) SW 219 0 min 0 W/m 5,7 C 6,1 C 4,8 km/h (1 Bft)
15.12.2015 02:54 6,1 C 97 % 1018,6 hPa 0,0 l/m 4,0 km/h (1 Bft) S-SW 207 0 min 0 W/m 5,7 C 6,1 C 6,4 km/h (2 Bft)
15.12.2015 02:57 6,1 C 97 % 1018,6 hPa 0,0 l/m 4,3 km/h (1 Bft) SW 215 0 min 0 W/m 5,7 C 6,1 C 6,4 km/h (2 Bft)
15.12.2015 03:00 6,1 C 97 % 1018,6 hPa 0,0 l/m 3,6 km/h (1 Bft) S-SW 207 0 min 0 W/m 5,7 C 6,1 C 6,4 km/h (2 Bft)
15.12.2015 03:03 6,2 C 96 % 1018,6 hPa 0,0 l/m 3,7 km/h (1 Bft) S-SW 208 0 min 0 W/m 5,6 C 6,2 C 4,8 km/h (1 Bft)
15.12.2015 03:06 6,2 C 96 % 1018,6 hPa 0,0 l/m 4,5 km/h (1 Bft) SW 220 0 min 0 W/m 5,6 C 6,2 C 8,0 km/h (2 Bft)
15.12.2015 03:09 6,2 C 96 % 1018,6 hPa 0,0 l/m 4,9 km/h (1 Bft) SW 222 0 min 0 W/m 5,6 C 6,2 C 6,4 km/h (2 Bft)
15.12.2015 03:12 6,2 C 96 % 1018,6 hPa 0,0 l/m 5,5 km/h (2 Bft) SW 220 0 min 0 W/m 5,6 C 6,2 C 9,7 km/h (2 Bft)
15.12.2015 03:15 6,2 C 96 % 1018,6 hPa 0,0 l/m 5,3 km/h (1 Bft) SW 223 0 min 0 W/m 5,6 C 6,2 C 9,7 km/h (2 Bft)
15.12.2015 03:18 6,2 C 96 % 1018,6 hPa 0,0 l/m 3,8 km/h (1 Bft) S-SW 211 0 min 0 W/m 5,6 C 6,2 C 6,4 km/h (2 Bft)
15.12.2015 03:21 6,3 C 96 % 1018,6 hPa 0,0 l/m 5,2 km/h (1 Bft) S-SW 208 0 min 0 W/m 5,7 C 6,3 C 8,0 km/h (2 Bft)
15.12.2015 03:24 6,3 C 96 % 1018,6 hPa 0,0 l/m 5,4 km/h (2 Bft) SW 236 0 min 0 W/m 5,7 C 6,3 C 8,0 km/h (2 Bft)
15.12.2015 03:27 6,3 C 96 % 1018,7 hPa 0,0 l/m 5,6 km/h (2 Bft) SW 215 0 min 0 W/m 5,7 C 6,3 C 8,0 km/h (2 Bft)
15.12.2015 03:30 6,3 C 96 % 1018,6 hPa 0,0 l/m 5,3 km/h (1 Bft) SW 229 0 min 0 W/m 5,7 C 6,3 C 8,0 km/h (2 Bft)
15.12.2015 03:33 6,3 C 97 % 1018,6 hPa 0,0 l/m 5,5 km/h (2 Bft) W-SW 242 0 min 0 W/m 5,9 C 6,3 C 8,0 km/h (2 Bft)
15.12.2015 03:36 6,4 C 97 % 1018,6 hPa 0,0 l/m 5,7 km/h (2 Bft) SW 224 0 min 0 W/m 6,0 C 6,4 C 8,0 km/h (2 Bft)
15.12.2015 03:39 6,4 C 97 % 1018,7 hPa 0,0 l/m 5,7 km/h (2 Bft) SW 218 0 min 0 W/m 6,0 C 6,4 C 8,0 km/h (2 Bft)
15.12.2015 03:42 6,4 C 97 % 1018,7 hPa 0,0 l/m 5,3 km/h (1 Bft) SW 216 0 min 0 W/m 6,0 C 6,4 C 6,4 km/h (2 Bft)
15.12.2015 03:45 6,4 C 97 % 1018,7 hPa 0,0 l/m 5,6 km/h (2 Bft) SW 215 0 min 0 W/m 6,0 C 6,4 C 8,0 km/h (2 Bft)
15.12.2015 03:48 6,4 C 96 % 1018,7 hPa 0,0 l/m 6,1 km/h (2 Bft) W-SW 240 0 min 0 W/m 5,8 C 6,4 C 8,0 km/h (2 Bft)
15.12.2015 03:51 6,4 C 96 % 1018,7 hPa 0,0 l/m 6,3 km/h (2 Bft) SW 219 0 min 0 W/m 5,8 C 6,4 C 8,0 km/h (2 Bft)
15.12.2015 03:54 6,4 C 96 % 1018,6 hPa 0,0 l/m 6,6 km/h (2 Bft) SW 228 0 min 0 W/m 5,8 C 6,3 C 11,3 km/h (2 Bft)
15.12.2015 03:57 6,4 C 96 % 1018,6 hPa 0,0 l/m 6,4 km/h (2 Bft) SW 224 0 min 0 W/m 5,8 C 6,4 C 11,3 km/h (2 Bft)
15.12.2015 04:00 6,4 C 96 % 1018,7 hPa 0,0 l/m 5,0 km/h (1 Bft) SW 222 0 min 0 W/m 5,8 C 6,4 C 8,0 km/h (2 Bft)
15.12.2015 04:03 6,4 C 96 % 1018,7 hPa 0,0 l/m 5,4 km/h (2 Bft) SW 215 0 min 0 W/m 5,8 C 6,4 C 8,0 km/h (2 Bft)
15.12.2015 04:06 6,4 C 96 % 1018,7 hPa 0,0 l/m 5,3 km/h (1 Bft) S-SW 211 0 min 0 W/m 5,8 C 6,4 C 8,0 km/h (2 Bft)
15.12.2015 04:09 6,4 C 96 % 1018,7 hPa 0,0 l/m 6,1 km/h (2 Bft) S-SW 212 0 min 0 W/m 5,8 C 6,4 C 9,7 km/h (2 Bft)
15.12.2015 04:12 6,4 C 96 % 1018,6 hPa 0,0 l/m 6,9 km/h (2 Bft) SW 217 0 min 0 W/m 5,8 C 6,0 C 9,7 km/h (2 Bft)
15.12.2015 04:15 6,5 C 96 % 1018,6 hPa 0,0 l/m 5,8 km/h (2 Bft) SW 223 0 min 0 W/m 5,9 C 6,5 C 9,7 km/h (2 Bft)
15.12.2015 04:18 6,5 C 96 % 1018,6 hPa 0,0 l/m 4,9 km/h (1 Bft) W-SW 243 0 min 0 W/m 5,9 C 6,5 C 8,0 km/h (2 Bft)
15.12.2015 04:21 6,5 C 96 % 1018,7 hPa 0,0 l/m 5,0 km/h (1 Bft) SW 233 0 min 0 W/m 5,9 C 6,5 C 8,0 km/h (2 Bft)
15.12.2015 04:24 6,5 C 96 % 1018,7 hPa 0,0 l/m 5,2 km/h (1 Bft) S-SW 212 0 min 0 W/m 5,9 C 6,5 C 8,0 km/h (2 Bft)
15.12.2015 04:27 6,5 C 96 % 1018,6 hPa 0,0 l/m 5,6 km/h (2 Bft) SW 225 0 min 0 W/m 5,9 C 6,5 C 8,0 km/h (2 Bft)
15.12.2015 04:30 6,5 C 96 % 1018,7 hPa 0,0 l/m 5,4 km/h (2 Bft) W-SW 248 0 min 0 W/m 5,9 C 6,5 C 8,0 km/h (2 Bft)
15.12.2015 04:33 6,6 C 96 % 1018,7 hPa 0,0 l/m 4,4 km/h (1 Bft) S-SW 201 0 min 0 W/m 6,0 C 6,6 C 6,4 km/h (2 Bft)
15.12.2015 04:36 6,6 C 96 % 1018,7 hPa 0,0 l/m 4,3 km/h (1 Bft) S-SW 212 0 min 0 W/m 6,0 C 6,6 C 8,0 km/h (2 Bft)
15.12.2015 04:39 6,6 C 96 % 1018,6 hPa 0,0 l/m 4,4 km/h (1 Bft) S-SW 213 0 min 0 W/m 6,0 C 6,6 C 6,4 km/h (2 Bft)
15.12.2015 04:42 6,6 C 96 % 1018,7 hPa 0,0 l/m 3,9 km/h (1 Bft) S-SW 210 0 min 0 W/m 6,0 C 6,6 C 6,4 km/h (2 Bft)
15.12.2015 04:45 6,6 C 96 % 1018,7 hPa 0,0 l/m 5,9 km/h (2 Bft) S-SW 206 0 min 0 W/m 6,0 C 6,6 C 8,0 km/h (2 Bft)
15.12.2015 04:48 6,6 C 96 % 1018,7 hPa 0,0 l/m 5,4 km/h (2 Bft) SW 230 0 min 0 W/m 6,0 C 6,6 C 8,0 km/h (2 Bft)
15.12.2015 04:51 6,6 C 96 % 1018,7 hPa 0,0 l/m 5,5 km/h (2 Bft) S-SW 209 0 min 0 W/m 6,0 C 6,6 C 9,7 km/h (2 Bft)
15.12.2015 04:54 6,6 C 96 % 1018,7 hPa 0,0 l/m 6,0 km/h (2 Bft) SW 219 0 min 0 W/m 6,0 C 6,6 C 9,7 km/h (2 Bft)
15.12.2015 04:57 6,6 C 96 % 1018,6 hPa 0,0 l/m 4,7 km/h (1 Bft) SW 231 0 min 0 W/m 6,0 C 6,6 C 6,4 km/h (2 Bft)
15.12.2015 05:00 6,6 C 96 % 1018,6 hPa 0,0 l/m 4,4 km/h (1 Bft) SW 216 0 min 0 W/m 6,0 C 6,6 C 8,0 km/h (2 Bft)
15.12.2015 05:03 6,6 C 96 % 1018,6 hPa 0,0 l/m 5,7 km/h (2 Bft) SW 218 0 min 0 W/m 6,0 C 6,6 C 8,0 km/h (2 Bft)
15.12.2015 05:06 6,6 C 96 % 1018,6 hPa 0,0 l/m 5,8 km/h (2 Bft) S-SW 213 0 min 0 W/m 6,0 C 6,6 C 8,0 km/h (2 Bft)
15.12.2015 05:09 6,6 C 96 % 1018,7 hPa 0,0 l/m 5,4 km/h (2 Bft) SW 219 0 min 0 W/m 6,0 C 6,6 C 8,0 km/h (2 Bft)
15.12.2015 05:12 6,6 C 96 % 1018,7 hPa 0,0 l/m 4,6 km/h (1 Bft) SW 219 0 min 0 W/m 6,0 C 6,6 C 6,4 km/h (2 Bft)
15.12.2015 05:15 6,6 C 96 % 1018,7 hPa 0,0 l/m 4,2 km/h (1 Bft) SW 219 0 min 0 W/m 6,0 C 6,6 C 6,4 km/h (2 Bft)
15.12.2015 05:18 6,6 C 96 % 1018,7 hPa 0,0 l/m 3,3 km/h (1 Bft) SW 219 0 min 0 W/m 6,0 C 6,6 C 6,4 km/h (2 Bft)
15.12.2015 05:21 6,6 C 96 % 1018,8 hPa 0,0 l/m 2,8 km/h (1 Bft) SW 219 0 min 0 W/m 6,0 C 6,6 C 4,8 km/h (1 Bft)
15.12.2015 05:24 6,6 C 96 % 1018,8 hPa 0,0 l/m 2,9 km/h (1 Bft) SW 219 0 min 0 W/m 6,0 C 6,6 C 4,8 km/h (1 Bft)
15.12.2015 05:27 6,6 C 96 % 1018,8 hPa 0,0 l/m 3,2 km/h (1 Bft) SW 219 0 min 0 W/m 6,0 C 6,6 C 4,8 km/h (1 Bft)
15.12.2015 05:30 6,6 C 96 % 1018,8 hPa 0,0 l/m 3,4 km/h (1 Bft) S-SW 206 0 min 0 W/m 6,0 C 6,6 C 8,0 km/h (2 Bft)
15.12.2015 05:33 6,6 C 96 % 1018,9 hPa 0,0 l/m 3,4 km/h (1 Bft) S-SW 207 0 min 0 W/m 6,0 C 6,6 C 4,8 km/h (1 Bft)
15.12.2015 05:36 6,6 C 96 % 1019,0 hPa 0,0 l/m 3,7 km/h (1 Bft) S-SW 207 0 min 0 W/m 6,0 C 6,6 C 4,8 km/h (1 Bft)
15.12.2015 05:39 6,6 C 96 % 1019,0 hPa 0,0 l/m 3,1 km/h (1 Bft) S-SW 207 0 min 0 W/m 6,0 C 6,6 C 4,8 km/h (1 Bft)
15.12.2015 05:42 6,6 C 96 % 1019,0 hPa 0,0 l/m 2,7 km/h (1 Bft) S-SW 207 0 min 0 W/m 6,0 C 6,6 C 4,8 km/h (1 Bft)
15.12.2015 05:45 6,6 C 96 % 1019,0 hPa 0,0 l/m 4,3 km/h (1 Bft) S-SW 207 0 min 0 W/m 6,0 C 6,6 C 8,0 km/h (2 Bft)
15.12.2015 05:48 6,6 C 96 % 1019,0 hPa 0,0 l/m 4,3 km/h (1 Bft) S-SW 196 0 min 0 W/m 6,0 C 6,6 C 6,4 km/h (2 Bft)
15.12.2015 05:51 6,6 C 96 % 1019,0 hPa 0,0 l/m 4,2 km/h (1 Bft) SW 215 0 min 0 W/m 6,0 C 6,6 C 6,4 km/h (2 Bft)
15.12.2015 05:54 6,7 C 96 % 1019,1 hPa 0,0 l/m 5,1 km/h (1 Bft) SW 223 0 min 0 W/m 6,1 C 6,7 C 8,0 km/h (2 Bft)
15.12.2015 05:57 6,7 C 96 % 1019,0 hPa 0,0 l/m 4,8 km/h (1 Bft) S-SW 209 0 min 0 W/m 6,1 C 6,7 C 6,4 km/h (2 Bft)
15.12.2015 06:00 6,7 C 96 % 1019,1 hPa 0,0 l/m 4,7 km/h (1 Bft) S-SW 208 0 min 0 W/m 6,1 C 6,7 C 6,4 km/h (2 Bft)
15.12.2015 06:03 6,7 C 96 % 1019,1 hPa 0,0 l/m 4,5 km/h (1 Bft) SW 216 0 min 0 W/m 6,1 C 6,7 C 6,4 km/h (2 Bft)
15.12.2015 06:06 6,7 C 96 % 1019,1 hPa 0,0 l/m 5,3 km/h (1 Bft) SW 232 0 min 0 W/m 6,1 C 6,7 C 8,0 km/h (2 Bft)
15.12.2015 06:09 6,7 C 96 % 1019,1 hPa 0,0 l/m 5,3 km/h (1 Bft) SW 219 0 min 0 W/m 6,1 C 6,7 C 8,0 km/h (2 Bft)
15.12.2015 06:12 6,7 C 96 % 1019,2 hPa 0,0 l/m 4,1 km/h (1 Bft) SW 227 0 min 0 W/m 6,1 C 6,7 C 6,4 km/h (2 Bft)
15.12.2015 06:15 6,7 C 96 % 1019,2 hPa 0,0 l/m 5,0 km/h (1 Bft) W-SW 242 0 min 0 W/m 6,1 C 6,7 C 8,0 km/h (2 Bft)
15.12.2015 06:18 6,7 C 96 % 1019,2 hPa 0,0 l/m 5,2 km/h (1 Bft) W-SW 242 0 min 0 W/m 6,1 C 6,7 C 8,0 km/h (2 Bft)
15.12.2015 06:21 6,7 C 96 % 1019,2 hPa 0,0 l/m 5,0 km/h (1 Bft) W-SW 242 0 min 0 W/m 6,1 C 6,7 C 6,4 km/h (2 Bft)
15.12.2015 06:24 6,7 C 96 % 1019,2 hPa 0,0 l/m 5,6 km/h (2 Bft) SW 225 0 min 0 W/m 6,1 C 6,7 C 8,0 km/h (2 Bft)
15.12.2015 06:27 6,7 C 96 % 1019,2 hPa 0,0 l/m 5,7 km/h (2 Bft) SW 232 0 min 0 W/m 6,1 C 6,7 C 11,3 km/h (2 Bft)
15.12.2015 06:30 6,7 C 96 % 1019,3 hPa 0,0 l/m 6,6 km/h (2 Bft) S-SW 210 0 min 0 W/m 6,1 C 6,6 C 9,7 km/h (2 Bft)
15.12.2015 06:33 6,7 C 96 % 1019,3 hPa 0,0 l/m 6,0 km/h (2 Bft) SW 229 0 min 0 W/m 6,1 C 6,7 C 9,7 km/h (2 Bft)
15.12.2015 06:36 6,7 C 96 % 1019,4 hPa 0,0 l/m 5,3 km/h (1 Bft) SW 232 0 min 0 W/m 6,1 C 6,7 C 8,0 km/h (2 Bft)
15.12.2015 06:39 6,7 C 96 % 1019,4 hPa 0,0 l/m 4,1 km/h (1 Bft) SW 227 0 min 0 W/m 6,1 C 6,7 C 6,4 km/h (2 Bft)
15.12.2015 06:42 6,7 C 96 % 1019,4 hPa 0,0 l/m 5,9 km/h (2 Bft) W-SW 250 0 min 0 W/m 6,1 C 6,7 C 9,7 km/h (2 Bft)
15.12.2015 06:45 6,7 C 96 % 1019,5 hPa 0,0 l/m 6,5 km/h (2 Bft) SW 222 0 min 0 W/m 6,1 C 6,6 C 9,7 km/h (2 Bft)
15.12.2015 06:48 6,7 C 96 % 1019,5 hPa 0,0 l/m 5,2 km/h (1 Bft) S-SW 211 0 min 0 W/m 6,1 C 6,7 C 8,0 km/h (2 Bft)
15.12.2015 06:51 6,7 C 96 % 1019,5 hPa 0,0 l/m 5,2 km/h (1 Bft) SW 235 0 min 0 W/m 6,1 C 6,7 C 8,0 km/h (2 Bft)
15.12.2015 06:54 6,7 C 96 % 1019,6 hPa 0,0 l/m 5,2 km/h (1 Bft) SW 226 0 min 0 W/m 6,1 C 6,7 C 8,0 km/h (2 Bft)
15.12.2015 06:57 6,7 C 96 % 1019,6 hPa 0,0 l/m 5,7 km/h (2 Bft) SW 233 0 min 0 W/m 6,1 C 6,7 C 8,0 km/h (2 Bft)
15.12.2015 07:00 6,7 C 96 % 1019,5 hPa 0,0 l/m 5,4 km/h (2 Bft) SW 226 0 min 0 W/m 6,1 C 6,7 C 8,0 km/h (2 Bft)
15.12.2015 07:03 6,7 C 96 % 1019,5 hPa 0,0 l/m 6,6 km/h (2 Bft) SW 225 0 min 0 W/m 6,1 C 6,6 C 8,0 km/h (2 Bft)
15.12.2015 07:06 6,7 C 96 % 1019,5 hPa 0,0 l/m 6,2 km/h (2 Bft) S-SW 206 0 min 0 W/m 6,1 C 6,7 C 8,0 km/h (2 Bft)
15.12.2015 07:09 6,6 C 96 % 1019,6 hPa 0,0 l/m 5,6 km/h (2 Bft) SW 224 0 min 0 W/m 6,0 C 6,6 C 8,0 km/h (2 Bft)
15.12.2015 07:12 6,6 C 96 % 1019,6 hPa 0,0 l/m 5,4 km/h (2 Bft) SW 215 0 min 0 W/m 6,0 C 6,6 C 8,0 km/h (2 Bft)
15.12.2015 07:15 6,6 C 96 % 1019,6 hPa 0,0 l/m 5,3 km/h (1 Bft) SW 229 0 min 0 W/m 6,0 C 6,6 C 8,0 km/h (2 Bft)
15.12.2015 07:18 6,6 C 96 % 1019,6 hPa 0,0 l/m 5,8 km/h (2 Bft) W-SW 244 0 min 0 W/m 6,0 C 6,6 C 8,0 km/h (2 Bft)
15.12.2015 07:21 6,6 C 96 % 1019,6 hPa 0,0 l/m 4,8 km/h (1 Bft) SW 231 0 min 0 W/m 6,0 C 6,6 C 6,4 km/h (2 Bft)
15.12.2015 07:24 6,6 C 96 % 1019,7 hPa 0,0 l/m 5,2 km/h (1 Bft) SW 214 0 min 0 W/m 6,0 C 6,6 C 8,0 km/h (2 Bft)
15.12.2015 07:27 6,6 C 96 % 1019,7 hPa 0,0 l/m 4,8 km/h (1 Bft) SW 236 0 min 0 W/m 6,0 C 6,6 C 6,4 km/h (2 Bft)
15.12.2015 07:30 6,6 C 96 % 1019,7 hPa 0,0 l/m 5,2 km/h (1 Bft) SW 219 0 min 0 W/m 6,0 C 6,6 C 8,0 km/h (2 Bft)
15.12.2015 07:33 6,6 C 96 % 1019,7 hPa 0,0 l/m 6,1 km/h (2 Bft) SW 229 0 min 0 W/m 6,0 C 6,6 C 8,0 km/h (2 Bft)
15.12.2015 07:36 6,6 C 96 % 1019,8 hPa 0,0 l/m 6,3 km/h (2 Bft) SW 233 0 min 0 W/m 6,0 C 6,6 C 8,0 km/h (2 Bft)
15.12.2015 07:39 6,6 C 96 % 1019,8 hPa 0,0 l/m 5,5 km/h (2 Bft) S-SW 209 0 min 0 W/m 6,0 C 6,6 C 8,0 km/h (2 Bft)
15.12.2015 07:42 6,5 C 96 % 1019,8 hPa 0,0 l/m 6,5 km/h (2 Bft) SW 231 0 min 0 W/m 5,9 C 6,4 C 12,9 km/h (3 Bft)
15.12.2015 07:45 6,5 C 96 % 1019,9 hPa 0,0 l/m 6,0 km/h (2 Bft) SW 230 0 min 0 W/m 5,9 C 6,5 C 8,0 km/h (2 Bft)
15.12.2015 07:48 6,5 C 96 % 1019,9 hPa 0,0 l/m 6,1 km/h (2 Bft) SW 227 0 min 0 W/m 5,9 C 6,5 C 9,7 km/h (2 Bft)
15.12.2015 07:51 6,5 C 96 % 1020,0 hPa 0,0 l/m 4,9 km/h (1 Bft) SW 229 0 min 0 W/m 5,9 C 6,5 C 8,0 km/h (2 Bft)
15.12.2015 07:54 6,5 C 96 % 1020,0 hPa 0,0 l/m 6,3 km/h (2 Bft) S 191 0 min 0 W/m 5,9 C 6,5 C 9,7 km/h (2 Bft)
15.12.2015 07:57 6,6 C 96 % 1020,1 hPa 0,0 l/m 7,0 km/h (2 Bft) S-SW 209 0 min 0 W/m 6,0 C 6,1 C 11,3 km/h (2 Bft)
15.12.2015 08:00 6,6 C 96 % 1020,1 hPa 0,0 l/m 6,0 km/h (2 Bft) SW 220 0 min 0 W/m 6,0 C 6,6 C 11,3 km/h (2 Bft)
15.12.2015 08:03 6,6 C 96 % 1020,1 hPa 0,0 l/m 5,0 km/h (1 Bft) SW 223 0 min 0 W/m 6,0 C 6,6 C 8,0 km/h (2 Bft)
15.12.2015 08:06 6,6 C 96 % 1020,3 hPa 0,0 l/m 5,9 km/h (2 Bft) SW 226 0 min 0 W/m 6,0 C 6,6 C 9,7 km/h (2 Bft)
15.12.2015 08:09 6,6 C 97 % 1020,3 hPa 0,0 l/m 6,0 km/h (2 Bft) SW 235 0 min 0 W/m 6,2 C 6,6 C 9,7 km/h (2 Bft)
15.12.2015 08:12 6,6 C 97 % 1020,4 hPa 0,0 l/m 5,9 km/h (2 Bft) SW 219 0 min 0 W/m 6,2 C 6,6 C 9,7 km/h (2 Bft)
15.12.2015 08:15 6,6 C 97 % 1020,4 hPa 0,0 l/m 5,7 km/h (2 Bft) SW 215 0 min 0 W/m 6,2 C 6,6 C 8,0 km/h (2 Bft)
15.12.2015 08:18 6,6 C 97 % 1020,5 hPa 0,0 l/m 4,5 km/h (1 Bft) SW 234 0 min 0 W/m 6,2 C 6,6 C 6,4 km/h (2 Bft)
15.12.2015 08:21 6,6 C 97 % 1020,5 hPa 0,0 l/m 5,3 km/h (1 Bft) W-SW 245 0 min 0 W/m 6,2 C 6,6 C 8,0 km/h (2 Bft)
15.12.2015 08:24 6,6 C 96 % 1020,5 hPa 0,0 l/m 5,5 km/h (2 Bft) W-SW 239 0 min 0 W/m 6,0 C 6,6 C 8,0 km/h (2 Bft)
15.12.2015 08:27 6,6 C 96 % 1020,5 hPa 0,0 l/m 5,5 km/h (2 Bft) W-SW 238 0 min 0 W/m 6,0 C 6,6 C 8,0 km/h (2 Bft)
15.12.2015 08:30 6,6 C 96 % 1020,6 hPa 0,0 l/m 5,1 km/h (1 Bft) S-SW 211 0 min 0 W/m 6,0 C 6,6 C 8,0 km/h (2 Bft)
15.12.2015 08:33 6,6 C 96 % 1020,6 hPa 0,0 l/m 5,6 km/h (2 Bft) SW 227 0 min 0 W/m 6,0 C 6,6 C 8,0 km/h (2 Bft)
15.12.2015 08:36 6,6 C 96 % 1020,7 hPa 0,0 l/m 5,6 km/h (2 Bft) SW 232 0 min 0 W/m 6,0 C 6,6 C 9,7 km/h (2 Bft)
15.12.2015 08:39 6,6 C 96 % 1020,7 hPa 0,0 l/m 6,8 km/h (2 Bft) W-SW 244 0 min 0 W/m 6,0 C 6,3 C 9,7 km/h (2 Bft)
15.12.2015 08:42 6,6 C 96 % 1020,8 hPa 0,0 l/m 7,4 km/h (2 Bft) SW 234 0 min 0 W/m 6,0 C 5,8 C 9,7 km/h (2 Bft)
15.12.2015 08:45 6,6 C 96 % 1020,8 hPa 0,0 l/m 5,8 km/h (2 Bft) S-SW 213 0 min 0 W/m 6,0 C 6,6 C 8,0 km/h (2 Bft)
15.12.2015 08:48 6,6 C 96 % 1020,8 hPa 0,0 l/m 5,3 km/h (1 Bft) SW 221 0 min 0 W/m 6,0 C 6,6 C 9,7 km/h (2 Bft)
15.12.2015 08:51 6,6 C 96 % 1020,9 hPa 0,0 l/m 7,5 km/h (2 Bft) SW 227 0 min 0 W/m 6,0 C 5,7 C 11,3 km/h (2 Bft)
15.12.2015 08:54 6,6 C 96 % 1020,9 hPa 0,0 l/m 6,9 km/h (2 Bft) SW 231 0 min 0 W/m 6,0 C 6,2 C 11,3 km/h (2 Bft)
15.12.2015 08:57 6,6 C 96 % 1021,0 hPa 0,0 l/m 5,9 km/h (2 Bft) W-SW 238 0 min 0 W/m 6,0 C 6,6 C 8,0 km/h (2 Bft)
15.12.2015 09:00 6,6 C 96 % 1021,0 hPa 0,0 l/m 5,5 km/h (2 Bft) SW 219 0 min 0 W/m 6,0 C 6,6 C 9,7 km/h (2 Bft)
15.12.2015 09:03 6,6 C 96 % 1021,1 hPa 0,0 l/m 4,9 km/h (1 Bft) S-SW 202 0 min 0 W/m 6,0 C 6,6 C 8,0 km/h (2 Bft)
15.12.2015 09:06 6,6 C 96 % 1021,1 hPa 0,0 l/m 6,2 km/h (2 Bft) W 260 0 min 0 W/m 6,0 C 6,6 C 9,7 km/h (2 Bft)
15.12.2015 09:09 6,6 C 96 % 1021,2 hPa 0,0 l/m 5,1 km/h (1 Bft) S-SW 209 0 min 0 W/m 6,0 C 6,6 C 8,0 km/h (2 Bft)
15.12.2015 09:12 6,6 C 96 % 1021,3 hPa 0,0 l/m 4,7 km/h (1 Bft) W-SW 241 0 min 5 W/m 6,0 C 6,6 C 6,4 km/h (2 Bft)
15.12.2015 09:15 6,6 C 96 % 1021,3 hPa 0,0 l/m 5,3 km/h (1 Bft) W-SW 248 0 min 7 W/m 6,0 C 6,6 C 8,0 km/h (2 Bft)
15.12.2015 09:18 6,7 C 96 % 1021,3 hPa 0,0 l/m 4,7 km/h (1 Bft) SW 227 0 min 7 W/m 6,1 C 6,7 C 6,4 km/h (2 Bft)
15.12.2015 09:21 6,7 C 96 % 1021,3 hPa 0,0 l/m 4,3 km/h (1 Bft) SW 217 0 min 7 W/m 6,1 C 6,7 C 6,4 km/h (2 Bft)
15.12.2015 09:24 6,7 C 96 % 1021,4 hPa 0,0 l/m 3,1 km/h (1 Bft) W-SW 250 0 min 7 W/m 6,1 C 6,7 C 4,8 km/h (1 Bft)
15.12.2015 09:27 6,7 C 96 % 1021,4 hPa 0,0 l/m 3,3 km/h (1 Bft) W-SW 244 0 min 9 W/m 6,1 C 6,7 C 6,4 km/h (2 Bft)
15.12.2015 09:30 6,7 C 96 % 1021,5 hPa 0,0 l/m 3,9 km/h (1 Bft) SW 215 0 min 11 W/m 6,1 C 6,7 C 8,0 km/h (2 Bft)
15.12.2015 09:33 6,7 C 96 % 1021,6 hPa 0,0 l/m 4,0 km/h (1 Bft) W-SW 248 0 min 12 W/m 6,1 C 6,7 C 6,4 km/h (2 Bft)
15.12.2015 09:36 6,7 C 96 % 1021,6 hPa 0,0 l/m 3,5 km/h (1 Bft) SW 216 0 min 14 W/m 6,1 C 6,7 C 4,8 km/h (1 Bft)
15.12.2015 09:39 6,7 C 96 % 1021,5 hPa 0,0 l/m 4,7 km/h (1 Bft) SW 222 0 min 16 W/m 6,1 C 6,7 C 8,0 km/h (2 Bft)
15.12.2015 09:42 6,7 C 96 % 1021,6 hPa 0,0 l/m 3,1 km/h (1 Bft) SW 222 0 min 19 W/m 6,1 C 6,7 C 4,8 km/h (1 Bft)
15.12.2015 09:45 6,7 C 96 % 1021,6 hPa 0,0 l/m 3,0 km/h (1 Bft) SW 222 0 min 23 W/m 6,1 C 6,7 C 4,8 km/h (1 Bft)
15.12.2015 09:48 6,7 C 96 % 1021,6 hPa 0,0 l/m 2,4 km/h (1 Bft) NW 305 0 min 30 W/m 6,1 C 6,7 C 3,2 km/h (1 Bft)
15.12.2015 09:51 6,7 C 96 % 1021,6 hPa 0,0 l/m 4,8 km/h (1 Bft) W 274 0 min 32 W/m 6,1 C 6,7 C 6,4 km/h (2 Bft)
15.12.2015 09:54 6,7 C 96 % 1021,6 hPa 0,0 l/m 3,2 km/h (1 Bft) W 270 0 min 32 W/m 6,1 C 6,7 C 6,4 km/h (2 Bft)
15.12.2015 09:57 6,7 C 96 % 1021,7 hPa 0,0 l/m 2,7 km/h (1 Bft) SW 228 0 min 32 W/m 6,1 C 6,7 C 3,2 km/h (1 Bft)
15.12.2015 10:00 6,7 C 96 % 1021,7 hPa 0,0 l/m 1,1 km/h (1 Bft) SW 229 0 min 32 W/m 6,1 C 6,7 C 3,2 km/h (1 Bft)
15.12.2015 10:03 6,7 C 96 % 1021,7 hPa 0,0 l/m 2,3 km/h (1 Bft) W-NW 290 0 min 33 W/m 6,1 C 6,7 C 4,8 km/h (1 Bft)
15.12.2015 10:06 6,7 C 96 % 1021,7 hPa 0,0 l/m 2,4 km/h (1 Bft) W-NW 288 0 min 35 W/m 6,1 C 6,7 C 4,8 km/h (1 Bft)
15.12.2015 10:09 6,7 C 96 % 1021,7 hPa 0,0 l/m 0,6 km/h (0 Bft) W-NW 288 0 min 35 W/m 6,1 C 6,7 C 1,6 km/h (1 Bft)
15.12.2015 10:12 6,8 C 96 % 1021,7 hPa 0,0 l/m 2,2 km/h (1 Bft) W-NW 288 0 min 35 W/m 6,2 C 6,8 C 4,8 km/h (1 Bft)
15.12.2015 10:15 6,8 C 96 % 1021,8 hPa 0,0 l/m 1,1 km/h (1 Bft) W-NW 288 0 min 37 W/m 6,2 C 6,8 C 3,2 km/h (1 Bft)
15.12.2015 10:18 6,8 C 96 % 1021,8 hPa 0,0 l/m 2,4 km/h (1 Bft) W-NW 288 0 min 37 W/m 6,2 C 6,8 C 3,2 km/h (1 Bft)
15.12.2015 10:21 6,8 C 96 % 1021,9 hPa 0,0 l/m 2,3 km/h (1 Bft) W-NW 288 0 min 37 W/m 6,2 C 6,8 C 3,2 km/h (1 Bft)
15.12.2015 10:24 6,8 C 96 % 1022,0 hPa 0,0 l/m 2,6 km/h (1 Bft) W-NW 288 0 min 37 W/m 6,2 C 6,8 C 4,8 km/h (1 Bft)
15.12.2015 10:27 6,8 C 96 % 1022,0 hPa 0,0 l/m 2,3 km/h (1 Bft) W-NW 288 0 min 39 W/m 6,2 C 6,8 C 3,2 km/h (1 Bft)
15.12.2015 10:30 6,8 C 96 % 1022,1 hPa 0,0 l/m 1,8 km/h (1 Bft) W-NW 288 0 min 40 W/m 6,2 C 6,8 C 3,2 km/h (1 Bft)
15.12.2015 10:33 6,7 C 96 % 1022,2 hPa 0,0 l/m 0,7 km/h (0 Bft) W-NW 288 0 min 42 W/m 6,1 C 6,7 C 3,2 km/h (1 Bft)
15.12.2015 10:36 6,7 C 96 % 1022,2 hPa 0,0 l/m 2,1 km/h (1 Bft) W-NW 288 0 min 44 W/m 6,1 C 6,7 C 3,2 km/h (1 Bft)
15.12.2015 10:39 6,7 C 96 % 1022,2 hPa 0,0 l/m 0,9 km/h (0 Bft) W-NW 288 0 min 46 W/m 6,1 C 6,7 C 1,6 km/h (1 Bft)
15.12.2015 10:42 6,8 C 96 % 1022,3 hPa 0,0 l/m 1,0 km/h (0 Bft) W-NW 288 0 min 47 W/m 6,2 C 6,8 C 3,2 km/h (1 Bft)
15.12.2015 10:45 6,8 C 96 % 1022,3 hPa 0,0 l/m 1,2 km/h (1 Bft) W-NW 288 0 min 49 W/m 6,2 C 6,8 C 3,2 km/h (1 Bft)
15.12.2015 10:48 6,8 C 96 % 1022,3 hPa 0,0 l/m 0,7 km/h (0 Bft) W-NW 288 0 min 53 W/m 6,2 C 6,8 C 1,6 km/h (1 Bft)
15.12.2015 10:51 6,8 C 96 % 1022,4 hPa 0,0 l/m 0,9 km/h (0 Bft) W-NW 288 0 min 56 W/m 6,2 C 6,8 C 1,6 km/h (1 Bft)
15.12.2015 10:54 6,9 C 96 % 1022,4 hPa 0,0 l/m 1,2 km/h (1 Bft) W-NW 288 0 min 60 W/m 6,3 C 6,9 C 1,6 km/h (1 Bft)
15.12.2015 10:57 6,9 C 96 % 1022,4 hPa 0,0 l/m 1,0 km/h (0 Bft) W-NW 288 0 min 65 W/m 6,3 C 6,9 C 1,6 km/h (1 Bft)
15.12.2015 11:00 7,0 C 96 % 1022,4 hPa 0,0 l/m 0,3 km/h (0 Bft) W-NW 288 0 min 65 W/m 6,4 C 7,0 C 1,6 km/h (1 Bft)
15.12.2015 11:03 7,1 C 96 % 1022,5 hPa 0,0 l/m 1,2 km/h (1 Bft) W-NW 288 0 min 63 W/m 6,5 C 7,1 C 3,2 km/h (1 Bft)
15.12.2015 11:06 7,1 C 96 % 1022,5 hPa 0,0 l/m 0,5 km/h (0 Bft) W-NW 288 0 min 60 W/m 6,5 C 7,1 C 1,6 km/h (1 Bft)
15.12.2015 11:09 7,1 C 96 % 1022,5 hPa 0,0 l/m 0,1 km/h (0 Bft) W-NW 288 0 min 58 W/m 6,5 C 7,1 C 1,6 km/h (1 Bft)
15.12.2015 11:12 7,2 C 96 % 1022,5 hPa 0,0 l/m 0,4 km/h (0 Bft) W-NW 288 0 min 60 W/m 6,6 C 7,2 C 3,2 km/h (1 Bft)
15.12.2015 11:15 7,2 C 96 % 1022,5 hPa 0,0 l/m 0,0 km/h (0 Bft) W-NW 288 0 min 60 W/m 6,6 C 7,2 C 0,0 km/h (0 Bft)
15.12.2015 11:18 7,2 C 96 % 1022,5 hPa 0,0 l/m 0,3 km/h (0 Bft) W-NW 288 0 min 54 W/m 6,6 C 7,2 C 1,6 km/h (1 Bft)
15.12.2015 11:21 7,3 C 96 % 1022,5 hPa 0,0 l/m 0,4 km/h (0 Bft) W-NW 288 0 min 51 W/m 6,7 C 7,3 C 1,6 km/h (1 Bft)
15.12.2015 11:24 7,3 C 96 % 1022,5 hPa 0,0 l/m 0,8 km/h (0 Bft) W-NW 288 0 min 53 W/m 6,7 C 7,3 C 3,2 km/h (1 Bft)
15.12.2015 11:27 7,3 C 96 % 1022,6 hPa 0,0 l/m 1,5 km/h (1 Bft) W-NW 288 0 min 54 W/m 6,7 C 7,3 C 3,2 km/h (1 Bft)
15.12.2015 11:30 7,4 C 96 % 1022,6 hPa 0,0 l/m 0,2 km/h (0 Bft) W-NW 288 0 min 53 W/m 6,8 C 7,4 C 1,6 km/h (1 Bft)
15.12.2015 11:33 7,4 C 96 % 1022,6 hPa 0,0 l/m 0,0 km/h (0 Bft) W-NW 288 0 min 44 W/m 6,8 C 7,4 C 0,0 km/h (0 Bft)
15.12.2015 11:36 7,5 C 96 % 1022,6 hPa 0,0 l/m 1,0 km/h (0 Bft) W-NW 288 0 min 51 W/m 6,9 C 7,5 C 3,2 km/h (1 Bft)
15.12.2015 11:39 7,5 C 96 % 1022,7 hPa 0,0 l/m 0,9 km/h (0 Bft) W-NW 288 0 min 49 W/m 6,9 C 7,5 C 1,6 km/h (1 Bft)
15.12.2015 11:42 7,5 C 96 % 1022,6 hPa 0,0 l/m 1,7 km/h (1 Bft) W-NW 288 0 min 44 W/m 6,9 C 7,5 C 3,2 km/h (1 Bft)
15.12.2015 11:45 7,5 C 96 % 1022,7 hPa 0,0 l/m 2,2 km/h (1 Bft) O 96 0 min 42 W/m 6,9 C 7,5 C 4,8 km/h (1 Bft)
15.12.2015 11:48 7,4 C 96 % 1022,8 hPa 0,0 l/m 2,7 km/h (1 Bft) N 349 0 min 44 W/m 6,8 C 7,4 C 4,8 km/h (1 Bft)
15.12.2015 11:51 7,4 C 96 % 1022,8 hPa 0,0 l/m 0,9 km/h (0 Bft) N 349 0 min 40 W/m 6,8 C 7,4 C 3,2 km/h (1 Bft)
15.12.2015 11:54 7,4 C 95 % 1022,7 hPa 0,0 l/m 0,2 km/h (0 Bft) N 349 0 min 46 W/m 6,7 C 7,4 C 1,6 km/h (1 Bft)
15.12.2015 11:57 7,3 C 95 % 1022,7 hPa 0,0 l/m 0,6 km/h (0 Bft) N 349 0 min 54 W/m 6,6 C 7,3 C 1,6 km/h (1 Bft)
15.12.2015 12:00 7,3 C 96 % 1022,7 hPa 0,0 l/m 1,5 km/h (1 Bft) N 349 0 min 72 W/m 6,7 C 7,3 C 3,2 km/h (1 Bft)
15.12.2015 12:03 7,3 C 96 % 1022,7 hPa 0,0 l/m 0,5 km/h (0 Bft) N 349 0 min 70 W/m 6,7 C 7,3 C 1,6 km/h (1 Bft)
15.12.2015 12:06 7,3 C 96 % 1022,7 hPa 0,0 l/m 1,4 km/h (1 Bft) N 349 0 min 54 W/m 6,7 C 7,3 C 3,2 km/h (1 Bft)
15.12.2015 12:09 7,4 C 96 % 1022,7 hPa 0,0 l/m 1,2 km/h (1 Bft) N 349 0 min 54 W/m 6,8 C 7,4 C 3,2 km/h (1 Bft)
15.12.2015 12:12 7,5 C 96 % 1022,7 hPa 0,0 l/m 0,9 km/h (0 Bft) N 349 0 min 44 W/m 6,9 C 7,5 C 3,2 km/h (1 Bft)
15.12.2015 12:15 7,5 C 96 % 1022,7 hPa 0,0 l/m 1,8 km/h (1 Bft) N-NO 24 0 min 39 W/m 6,9 C 7,5 C 3,2 km/h (1 Bft)
15.12.2015 12:18 7,5 C 96 % 1022,7 hPa 0,0 l/m 2,5 km/h (1 Bft) N-NO 24 0 min 39 W/m 6,9 C 7,5 C 4,8 km/h (1 Bft)
15.12.2015 12:21 7,4 C 96 % 1022,8 hPa 0,0 l/m 1,8 km/h (1 Bft) N-NO 33 0 min 39 W/m 6,8 C 7,4 C 4,8 km/h (1 Bft)
15.12.2015 12:24 7,4 C 96 % 1022,8 hPa 0,0 l/m 1,1 km/h (1 Bft) N-NO 33 0 min 40 W/m 6,8 C 7,4 C 3,2 km/h (1 Bft)
15.12.2015 12:27 7,4 C 96 % 1022,9 hPa 0,0 l/m 3,2 km/h (1 Bft) N-NO 30 0 min 39 W/m 6,8 C 7,4 C 6,4 km/h (2 Bft)
15.12.2015 12:30 7,4 C 96 % 1022,8 hPa 0,0 l/m 3,3 km/h (1 Bft) NO 34 0 min 39 W/m 6,8 C 7,4 C 4,8 km/h (1 Bft)
15.12.2015 12:33 7,4 C 96 % 1022,8 hPa 0,0 l/m 2,0 km/h (1 Bft) NO 36 0 min 37 W/m 6,8 C 7,4 C 4,8 km/h (1 Bft)
15.12.2015 12:36 7,3 C 96 % 1022,8 hPa 0,0 l/m 3,1 km/h (1 Bft) O 100 0 min 40 W/m 6,7 C 7,3 C 6,4 km/h (2 Bft)
15.12.2015 12:39 7,3 C 96 % 1022,9 hPa 0,0 l/m 2,3 km/h (1 Bft) O 84 0 min 40 W/m 6,7 C 7,3 C 4,8 km/h (1 Bft)
15.12.2015 12:42 7,3 C 96 % 1022,8 hPa 0,0 l/m 3,3 km/h (1 Bft) O-NO 65 0 min 46 W/m 6,7 C 7,3 C 8,0 km/h (2 Bft)
15.12.2015 12:45 7,3 C 96 % 1022,8 hPa 0,0 l/m 1,1 km/h (1 Bft) O-NO 65 0 min 46 W/m 6,7 C 7,3 C 3,2 km/h (1 Bft)
15.12.2015 12:48 7,3 C 96 % 1022,8 hPa 0,0 l/m 2,1 km/h (1 Bft) O-NO 66 0 min 49 W/m 6,7 C 7,3 C 4,8 km/h (1 Bft)
15.12.2015 12:51 7,3 C 96 % 1022,8 hPa 0,0 l/m 2,4 km/h (1 Bft) O-SO 102 0 min 51 W/m 6,7 C 7,3 C 6,4 km/h (2 Bft)
15.12.2015 12:54 7,3 C 96 % 1022,8 hPa 0,0 l/m 1,8 km/h (1 Bft) NO 40 0 min 53 W/m 6,7 C 7,3 C 3,2 km/h (1 Bft)
15.12.2015 12:57 7,3 C 96 % 1022,8 hPa 0,0 l/m 2,9 km/h (1 Bft) N-NO 21 0 min 56 W/m 6,7 C 7,3 C 6,4 km/h (2 Bft)
15.12.2015 13:00 7,3 C 96 % 1022,7 hPa 0,0 l/m 2,6 km/h (1 Bft) O 89 0 min 62 W/m 6,7 C 7,3 C 6,4 km/h (2 Bft)
15.12.2015 13:03 7,3 C 96 % 1022,7 hPa 0,0 l/m 2,6 km/h (1 Bft) O 85 0 min 56 W/m 6,7 C 7,3 C 4,8 km/h (1 Bft)
15.12.2015 13:06 7,3 C 96 % 1022,7 hPa 0,0 l/m 2,7 km/h (1 Bft) O 94 0 min 53 W/m 6,7 C 7,3 C 6,4 km/h (2 Bft)
15.12.2015 13:09 7,3 C 96 % 1022,6 hPa 0,0 l/m 2,7 km/h (1 Bft) O 80 0 min 51 W/m 6,7 C 7,3 C 4,8 km/h (1 Bft)
15.12.2015 13:12 7,3 C 96 % 1022,7 hPa 0,0 l/m 2,5 km/h (1 Bft) N-NO 31 0 min 49 W/m 6,7 C 7,3 C 4,8 km/h (1 Bft)
15.12.2015 13:15 7,3 C 96 % 1022,7 hPa 0,0 l/m 4,5 km/h (1 Bft) O 80 0 min 35 W/m 6,7 C 7,3 C 9,7 km/h (2 Bft)
15.12.2015 13:18 7,2 C 96 % 1022,7 hPa 0,0 l/m 3,1 km/h (1 Bft) O 80 0 min 40 W/m 6,6 C 7,2 C 6,4 km/h (2 Bft)
15.12.2015 13:21 7,2 C 96 % 1022,7 hPa 0,0 l/m 3,4 km/h (1 Bft) NO 48 0 min 39 W/m 6,6 C 7,2 C 8,0 km/h (2 Bft)
15.12.2015 13:24 7,1 C 96 % 1022,8 hPa 0,0 l/m 3,3 km/h (1 Bft) O-SO 103 0 min 39 W/m 6,5 C 7,1 C 8,0 km/h (2 Bft)
15.12.2015 13:27 7,1 C 96 % 1022,9 hPa 0,0 l/m 3,0 km/h (1 Bft) O-NO 61 0 min 32 W/m 6,5 C 7,1 C 4,8 km/h (1 Bft)
15.12.2015 13:30 7,1 C 96 % 1023,0 hPa 0,0 l/m 3,1 km/h (1 Bft) O-NO 62 0 min 21 W/m 6,5 C 7,1 C 6,4 km/h (2 Bft)
15.12.2015 13:33 7,1 C 96 % 1023,0 hPa 0,0 l/m 4,0 km/h (1 Bft) NO 38 0 min 11 W/m 6,5 C 7,1 C 8,0 km/h (2 Bft)
15.12.2015 13:36 7,1 C 96 % 1023,0 hPa 0,0 l/m 3,6 km/h (1 Bft) O-NO 63 0 min 14 W/m 6,5 C 7,1 C 6,4 km/h (2 Bft)
15.12.2015 13:39 7,1 C 96 % 1023,0 hPa 0,0 l/m 3,0 km/h (1 Bft) NO 49 0 min 12 W/m 6,5 C 7,1 C 8,0 km/h (2 Bft)
15.12.2015 13:42 7,1 C 96 % 1023,0 hPa 0,0 l/m 2,5 km/h (1 Bft) NO 41 0 min 12 W/m 6,5 C 7,1 C 6,4 km/h (2 Bft)
15.12.2015 13:45 7,1 C 96 % 1023,0 hPa 0,0 l/m 2,5 km/h (1 Bft) NO 56 0 min 11 W/m 6,5 C 7,1 C 4,8 km/h (1 Bft)
15.12.2015 13:48 7,1 C 96 % 1023,0 hPa 0,0 l/m 4,3 km/h (1 Bft) O-NO 74 0 min 11 W/m 6,5 C 7,1 C 11,3 km/h (2 Bft)
15.12.2015 13:51 7,1 C 96 % 1023,1 hPa 0,0 l/m 2,5 km/h (1 Bft) O 99 0 min 14 W/m 6,5 C 7,1 C 4,8 km/h (1 Bft)
15.12.2015 13:54 7,0 C 96 % 1023,1 hPa 0,0 l/m 3,0 km/h (1 Bft) O 89 0 min 14 W/m 6,4 C 7,0 C 6,4 km/h (2 Bft)
15.12.2015 13:57 7,0 C 96 % 1023,2 hPa 0,0 l/m 3,3 km/h (1 Bft) NO 52 0 min 14 W/m 6,4 C 7,0 C 6,4 km/h (2 Bft)
15.12.2015 14:00 7,0 C 96 % 1023,2 hPa 0,0 l/m 3,3 km/h (1 Bft) O 95 0 min 14 W/m 6,4 C 7,0 C 9,7 km/h (2 Bft)
15.12.2015 14:03 7,0 C 96 % 1023,2 hPa 0,0 l/m 3,7 km/h (1 Bft) N 5 0 min 14 W/m 6,4 C 7,0 C 12,9 km/h (3 Bft)
15.12.2015 14:06 7,0 C 96 % 1023,3 hPa 0,0 l/m 5,5 km/h (2 Bft) O-NO 61 0 min 16 W/m 6,4 C 7,0 C 12,9 km/h (3 Bft)
15.12.2015 14:09 6,9 C 96 % 1023,4 hPa 0,0 l/m 5,3 km/h (1 Bft) O 100 0 min 21 W/m 6,3 C 6,9 C 9,7 km/h (2 Bft)
15.12.2015 14:12 6,9 C 96 % 1023,4 hPa 0,0 l/m 2,8 km/h (1 Bft) O 86 0 min 25 W/m 6,3 C 6,9 C 4,8 km/h (1 Bft)
15.12.2015 14:15 6,9 C 96 % 1023,4 hPa 0,0 l/m 2,5 km/h (1 Bft) O-NO 57 0 min 26 W/m 6,3 C 6,9 C 4,8 km/h (1 Bft)
15.12.2015 14:18 6,9 C 96 % 1023,4 hPa 0,0 l/m 4,1 km/h (1 Bft) SO 133 0 min 25 W/m 6,3 C 6,9 C 11,3 km/h (2 Bft)
15.12.2015 14:21 6,9 C 96 % 1023,4 hPa 0,0 l/m 6,0 km/h (2 Bft) O-SO 103 0 min 30 W/m 6,3 C 6,9 C 12,9 km/h (3 Bft)
15.12.2015 14:24 6,8 C 96 % 1023,4 hPa 0,0 l/m 5,7 km/h (2 Bft) O 82 0 min 33 W/m 6,2 C 6,8 C 11,3 km/h (2 Bft)
15.12.2015 14:27 6,8 C 96 % 1023,4 hPa 0,0 l/m 4,7 km/h (1 Bft) SO 133 0 min 30 W/m 6,2 C 6,8 C 11,3 km/h (2 Bft)
15.12.2015 14:30 6,8 C 96 % 1023,4 hPa 0,0 l/m 4,5 km/h (1 Bft) NO 40 0 min 26 W/m 6,2 C 6,8 C 8,0 km/h (2 Bft)
15.12.2015 14:33 6,8 C 96 % 1023,4 hPa 0,0 l/m 5,3 km/h (1 Bft) O 92 0 min 26 W/m 6,2 C 6,8 C 11,3 km/h (2 Bft)
15.12.2015 14:36 6,8 C 96 % 1023,4 hPa 0,0 l/m 3,5 km/h (1 Bft) SO 124 0 min 25 W/m 6,2 C 6,8 C 6,4 km/h (2 Bft)
15.12.2015 14:39 6,8 C 96 % 1023,5 hPa 0,0 l/m 3,9 km/h (1 Bft) O-NO 75 0 min 23 W/m 6,2 C 6,8 C 9,7 km/h (2 Bft)
15.12.2015 14:42 6,8 C 96 % 1023,4 hPa 0,0 l/m 5,1 km/h (1 Bft) NO 35 0 min 16 W/m 6,2 C 6,8 C 11,3 km/h (2 Bft)
15.12.2015 14:45 6,8 C 96 % 1023,6 hPa 0,0 l/m 3,3 km/h (1 Bft) O 91 0 min 19 W/m 6,2 C 6,8 C 6,4 km/h (2 Bft)
15.12.2015 14:48 6,8 C 96 % 1023,5 hPa 0,0 l/m 4,6 km/h (1 Bft) O-NO 59 0 min 16 W/m 6,2 C 6,8 C 12,9 km/h (3 Bft)
15.12.2015 14:51 6,8 C 96 % 1023,6 hPa 0,0 l/m 4,4 km/h (1 Bft) NO 47 0 min 16 W/m 6,2 C 6,8 C 6,4 km/h (2 Bft)
15.12.2015 14:54 6,8 C 96 % 1023,6 hPa 0,0 l/m 5,0 km/h (1 Bft) N-NO 28 0 min 18 W/m 6,2 C 6,8 C 9,7 km/h (2 Bft)
15.12.2015 14:57 6,8 C 96 % 1023,5 hPa 0,0 l/m 4,6 km/h (1 Bft) NO 53 0 min 16 W/m 6,2 C 6,8 C 11,3 km/h (2 Bft)
15.12.2015 15:00 6,7 C 96 % 1023,6 hPa 0,0 l/m 4,7 km/h (1 Bft) O 96 0 min 14 W/m 6,1 C 6,7 C 8,0 km/h (2 Bft)
15.12.2015 15:03 6,7 C 96 % 1023,6 hPa 0,0 l/m 4,6 km/h (1 Bft) NO 34 0 min 14 W/m 6,1 C 6,7 C 14,5 km/h (3 Bft)
15.12.2015 15:06 6,7 C 95 % 1023,6 hPa 0,0 l/m 5,9 km/h (2 Bft) O 82 0 min 11 W/m 6,0 C 6,7 C 9,7 km/h (2 Bft)
15.12.2015 15:09 6,7 C 95 % 1023,7 hPa 0,0 l/m 5,2 km/h (1 Bft) NO 35 0 min 11 W/m 6,0 C 6,7 C 14,5 km/h (3 Bft)
15.12.2015 15:12 6,6 C 95 % 1023,7 hPa 0,0 l/m 6,7 km/h (2 Bft) NO 40 0 min 11 W/m 5,9 C 6,4 C 14,5 km/h (3 Bft)
15.12.2015 15:15 6,6 C 95 % 1023,7 hPa 0,0 l/m 6,7 km/h (2 Bft) O-SO 104 0 min 9 W/m 5,9 C 6,4 C 14,5 km/h (3 Bft)
15.12.2015 15:18 6,6 C 95 % 1023,7 hPa 0,0 l/m 5,1 km/h (1 Bft) NO 55 0 min 9 W/m 5,9 C 6,6 C 9,7 km/h (2 Bft)
15.12.2015 15:21 6,5 C 95 % 1023,8 hPa 0,0 l/m 5,4 km/h (2 Bft) NO 47 0 min 9 W/m 5,8 C 6,5 C 12,9 km/h (3 Bft)
15.12.2015 15:24 6,4 C 95 % 1023,8 hPa 0,0 l/m 3,8 km/h (1 Bft) O 79 0 min 9 W/m 5,7 C 6,4 C 6,4 km/h (2 Bft)
15.12.2015 15:27 6,4 C 95 % 1023,9 hPa 0,0 l/m 4,9 km/h (1 Bft) O-NO 57 0 min 9 W/m 5,7 C 6,4 C 11,3 km/h (2 Bft)
15.12.2015 15:30 6,4 C 95 % 1023,9 hPa 0,0 l/m 5,8 km/h (2 Bft) O-NO 66 0 min 7 W/m 5,7 C 6,4 C 12,9 km/h (3 Bft)
15.12.2015 15:33 6,4 C 95 % 1024,0 hPa 0,0 l/m 5,3 km/h (1 Bft) O-NO 61 0 min 7 W/m 5,7 C 6,4 C 12,9 km/h (3 Bft)
15.12.2015 15:36 6,3 C 95 % 1024,1 hPa 0,0 l/m 4,5 km/h (1 Bft) O 96 0 min 5 W/m 5,6 C 6,3 C 11,3 km/h (2 Bft)
15.12.2015 15:39 6,3 C 95 % 1024,1 hPa 0,0 l/m 5,1 km/h (1 Bft) NO 36 0 min 5 W/m 5,6 C 6,3 C 9,7 km/h (2 Bft)
15.12.2015 15:42 6,3 C 95 % 1024,1 hPa 0,0 l/m 4,2 km/h (1 Bft) O-NO 58 0 min 0 W/m 5,6 C 6,3 C 8,0 km/h (2 Bft)
15.12.2015 15:45 6,3 C 95 % 1024,1 hPa 0,0 l/m 5,1 km/h (1 Bft) NO 55 0 min 5 W/m 5,6 C 6,3 C 11,3 km/h (2 Bft)
15.12.2015 15:48 6,2 C 95 % 1024,2 hPa 0,0 l/m 4,7 km/h (1 Bft) NO 36 0 min 0 W/m 5,5 C 6,2 C 9,7 km/h (2 Bft)
15.12.2015 15:51 6,2 C 95 % 1024,1 hPa 0,0 l/m 3,6 km/h (1 Bft) NO 34 0 min 0 W/m 5,5 C 6,2 C 8,0 km/h (2 Bft)
15.12.2015 15:54 6,2 C 95 % 1024,1 hPa 0,0 l/m 4,5 km/h (1 Bft) O-SO 103 0 min 0 W/m 5,5 C 6,2 C 8,0 km/h (2 Bft)
15.12.2015 15:57 6,2 C 95 % 1024,1 hPa 0,0 l/m 6,3 km/h (2 Bft) S-SW 192 0 min 0 W/m 5,5 C 6,2 C 16,1 km/h (3 Bft)
15.12.2015 16:00 6,1 C 95 % 1024,1 hPa 0,0 l/m 5,4 km/h (2 Bft) N-NO 32 0 min 0 W/m 5,4 C 6,1 C 12,9 km/h (3 Bft)
15.12.2015 16:03 6,1 C 95 % 1024,1 hPa 0,0 l/m 4,8 km/h (1 Bft) SO 140 0 min 0 W/m 5,4 C 6,1 C 11,3 km/h (2 Bft)
15.12.2015 16:06 6,0 C 95 % 1024,2 hPa 0,0 l/m 5,9 km/h (2 Bft) N-NO 33 0 min 0 W/m 5,3 C 6,0 C 11,3 km/h (2 Bft)
15.12.2015 16:09 5,9 C 95 % 1024,2 hPa 0,0 l/m 4,9 km/h (1 Bft) O-NO 67 0 min 0 W/m 5,2 C 5,9 C 11,3 km/h (2 Bft)
15.12.2015 16:12 5,9 C 95 % 1024,2 hPa 0,0 l/m 3,8 km/h (1 Bft) O 92 0 min 0 W/m 5,2 C 5,9 C 6,4 km/h (2 Bft)
15.12.2015 16:15 5,9 C 95 % 1024,3 hPa 0,0 l/m 7,1 km/h (2 Bft) O-NO 65 0 min 0 W/m 5,2 C 5,3 C 14,5 km/h (3 Bft)
15.12.2015 16:18 5,9 C 95 % 1024,3 hPa 0,0 l/m 5,8 km/h (2 Bft) O-SO 102 0 min 0 W/m 5,2 C 5,9 C 12,9 km/h (3 Bft)
15.12.2015 16:21 5,8 C 95 % 1024,4 hPa 0,0 l/m 4,3 km/h (1 Bft) O-SO 105 0 min 0 W/m 5,1 C 5,8 C 9,7 km/h (2 Bft)
15.12.2015 16:24 5,8 C 95 % 1024,4 hPa 0,0 l/m 4,0 km/h (1 Bft) O-SO 107 0 min 0 W/m 5,1 C 5,8 C 11,3 km/h (2 Bft)
15.12.2015 16:27 5,8 C 95 % 1024,4 hPa 0,0 l/m 3,1 km/h (1 Bft) SO 134 0 min 0 W/m 5,1 C 5,8 C 6,4 km/h (2 Bft)
15.12.2015 16:30 5,8 C 95 % 1024,4 hPa 0,0 l/m 4,1 km/h (1 Bft) O-SO 104 0 min 0 W/m 5,1 C 5,8 C 11,3 km/h (2 Bft)
15.12.2015 16:33 5,8 C 96 % 1024,4 hPa 0,0 l/m 5,0 km/h (1 Bft) O 101 0 min 0 W/m 5,2 C 5,8 C 12,9 km/h (3 Bft)
15.12.2015 16:36 5,8 C 96 % 1024,4 hPa 0,0 l/m 3,6 km/h (1 Bft) SO 130 0 min 0 W/m 5,2 C 5,8 C 9,7 km/h (2 Bft)
15.12.2015 16:39 5,8 C 96 % 1024,4 hPa 0,0 l/m 3,3 km/h (1 Bft) N 360 0 min 0 W/m 5,2 C 5,8 C 6,4 km/h (2 Bft)
15.12.2015 16:42 5,8 C 96 % 1024,4 hPa 0,0 l/m 3,9 km/h (1 Bft) NO 36 0 min 0 W/m 5,2 C 5,8 C 8,0 km/h (2 Bft)
15.12.2015 16:45 5,8 C 96 % 1024,4 hPa 0,0 l/m 3,9 km/h (1 Bft) N-NO 17 0 min 0 W/m 5,2 C 5,8 C 11,3 km/h (2 Bft)
15.12.2015 16:48 5,9 C 96 % 1024,4 hPa 0,0 l/m 3,9 km/h (1 Bft) O-NO 64 0 min 0 W/m 5,3 C 5,9 C 8,0 km/h (2 Bft)
15.12.2015 16:51 5,9 C 96 % 1024,4 hPa 0,0 l/m 4,5 km/h (1 Bft) SO 132 0 min 0 W/m 5,3 C 5,9 C 9,7 km/h (2 Bft)
15.12.2015 16:54 5,9 C 96 % 1024,4 hPa 0,0 l/m 4,4 km/h (1 Bft) O 92 0 min 0 W/m 5,3 C 5,9 C 11,3 km/h (2 Bft)
15.12.2015 16:57 5,9 C 96 % 1024,4 hPa 0,0 l/m 5,6 km/h (2 Bft) NO 51 0 min 0 W/m 5,3 C 5,9 C 14,5 km/h (3 Bft)
15.12.2015 17:00 5,9 C 96 % 1024,4 hPa 0,0 l/m 7,3 km/h (2 Bft) NO 51 0 min 0 W/m 5,3 C 5,1 C 16,1 km/h (3 Bft)
15.12.2015 17:03 5,9 C 96 % 1024,4 hPa 0,0 l/m 4,4 km/h (1 Bft) O-NO 59 0 min 0 W/m 5,3 C 5,9 C 8,0 km/h (2 Bft)
15.12.2015 17:06 5,8 C 96 % 1024,4 hPa 0,0 l/m 6,5 km/h (2 Bft) NO 49 0 min 0 W/m 5,2 C 5,7 C 16,1 km/h (3 Bft)
15.12.2015 17:09 5,8 C 96 % 1024,4 hPa 0,0 l/m 6,1 km/h (2 Bft) O 99 0 min 0 W/m 5,2 C 5,8 C 14,5 km/h (3 Bft)
15.12.2015 17:12 5,8 C 96 % 1024,4 hPa 0,0 l/m 3,0 km/h (1 Bft) O-NO 76 0 min 0 W/m 5,2 C 5,8 C 6,4 km/h (2 Bft)
15.12.2015 17:15 5,8 C 96 % 1024,4 hPa 0,0 l/m 3,4 km/h (1 Bft) O 79 0 min 0 W/m 5,2 C 5,8 C 8,0 km/h (2 Bft)
15.12.2015 17:18 5,8 C 96 % 1024,6 hPa 0,0 l/m 3,9 km/h (1 Bft) N 360 0 min 0 W/m 5,2 C 5,8 C 12,9 km/h (3 Bft)
15.12.2015 17:21 5,8 C 96 % 1024,6 hPa 0,0 l/m 4,9 km/h (1 Bft) O-SO 103 0 min 0 W/m 5,2 C 5,8 C 8,0 km/h (2 Bft)
15.12.2015 17:24 5,8 C 96 % 1024,6 hPa 0,0 l/m 2,2 km/h (1 Bft) O-SO 117 0 min 0 W/m 5,2 C 5,8 C 4,8 km/h (1 Bft)
15.12.2015 17:27 5,8 C 96 % 1024,6 hPa 0,0 l/m 2,7 km/h (1 Bft) O 82 0 min 0 W/m 5,2 C 5,8 C 6,4 km/h (2 Bft)
15.12.2015 17:30 5,8 C 96 % 1024,6 hPa 0,0 l/m 4,1 km/h (1 Bft) O-NO 63 0 min 0 W/m 5,2 C 5,8 C 14,5 km/h (3 Bft)
15.12.2015 17:33 5,8 C 96 % 1024,6 hPa 0,0 l/m 3,8 km/h (1 Bft) S-SW 200 0 min 0 W/m 5,2 C 5,8 C 12,9 km/h (3 Bft)
15.12.2015 17:36 5,8 C 96 % 1024,6 hPa 0,0 l/m 4,7 km/h (1 Bft) NO 36 0 min 0 W/m 5,2 C 5,8 C 12,9 km/h (3 Bft)
15.12.2015 17:39 5,8 C 96 % 1024,7 hPa 0,0 l/m 3,9 km/h (1 Bft) O-NO 72 0 min 0 W/m 5,2 C 5,8 C 9,7 km/h (2 Bft)
15.12.2015 17:42 5,8 C 96 % 1024,7 hPa 0,0 l/m 5,8 km/h (2 Bft) O-SO 120 0 min 0 W/m 5,2 C 5,8 C 11,3 km/h (2 Bft)
15.12.2015 17:45 5,8 C 96 % 1024,7 hPa 0,0 l/m 7,1 km/h (2 Bft) O-SO 112 0 min 0 W/m 5,2 C 5,2 C 17,7 km/h (3 Bft)
15.12.2015 17:48 5,8 C 96 % 1024,8 hPa 0,0 l/m 4,8 km/h (1 Bft) SO 131 0 min 0 W/m 5,2 C 5,8 C 12,9 km/h (3 Bft)
15.12.2015 17:51 5,8 C 96 % 1024,8 hPa 0,0 l/m 5,8 km/h (2 Bft) S 190 0 min 0 W/m 5,2 C 5,8 C 17,7 km/h (3 Bft)
15.12.2015 17:54 5,7 C 96 % 1024,8 hPa 0,0 l/m 4,5 km/h (1 Bft) O-SO 123 0 min 0 W/m 5,1 C 5,7 C 14,5 km/h (3 Bft)
15.12.2015 17:57 5,7 C 96 % 1024,8 hPa 0,0 l/m 5,0 km/h (1 Bft) O-NO 58 0 min 0 W/m 5,1 C 5,7 C 16,1 km/h (3 Bft)
15.12.2015 18:00 5,7 C 96 % 1024,9 hPa 0,0 l/m 5,1 km/h (1 Bft) O-SO 107 0 min 0 W/m 5,1 C 5,7 C 14,5 km/h (3 Bft)
15.12.2015 18:03 5,7 C 96 % 1024,9 hPa 0,0 l/m 4,4 km/h (1 Bft) O 90 0 min 0 W/m 5,1 C 5,7 C 9,7 km/h (2 Bft)
15.12.2015 18:06 5,7 C 96 % 1025,0 hPa 0,0 l/m 3,1 km/h (1 Bft) S 171 0 min 0 W/m 5,1 C 5,7 C 12,9 km/h (3 Bft)
15.12.2015 18:09 5,7 C 96 % 1025,1 hPa 0,0 l/m 3,9 km/h (1 Bft) SO 125 0 min 0 W/m 5,1 C 5,7 C 11,3 km/h (2 Bft)
15.12.2015 18:12 5,7 C 96 % 1025,1 hPa 0,0 l/m 7,0 km/h (2 Bft) SO 144 0 min 0 W/m 5,1 C 5,2 C 14,5 km/h (3 Bft)
15.12.2015 18:15 5,7 C 96 % 1025,2 hPa 0,0 l/m 6,0 km/h (2 Bft) O-SO 118 0 min 0 W/m 5,1 C 5,7 C 14,5 km/h (3 Bft)
15.12.2015 18:18 5,7 C 96 % 1025,1 hPa 0,0 l/m 5,9 km/h (2 Bft) O-SO 104 0 min 0 W/m 5,1 C 5,7 C 12,9 km/h (3 Bft)
15.12.2015 18:21 5,7 C 96 % 1025,1 hPa 0,0 l/m 4,9 km/h (1 Bft) SO 124 0 min 0 W/m 5,1 C 5,7 C 11,3 km/h (2 Bft)
15.12.2015 18:24 5,7 C 96 % 1025,1 hPa 0,0 l/m 6,0 km/h (2 Bft) O 94 0 min 0 W/m 5,1 C 5,7 C 16,1 km/h (3 Bft)
15.12.2015 18:27 5,7 C 96 % 1025,2 hPa 0,0 l/m 4,8 km/h (1 Bft) O-SO 123 0 min 0 W/m 5,1 C 5,7 C 14,5 km/h (3 Bft)
15.12.2015 18:30 5,7 C 96 % 1025,3 hPa 0,0 l/m 6,0 km/h (2 Bft) O 80 0 min 0 W/m 5,1 C 5,7 C 16,1 km/h (3 Bft)
15.12.2015 18:33 5,7 C 96 % 1025,3 hPa 0,0 l/m 6,6 km/h (2 Bft) NO 42 0 min 0 W/m 5,1 C 5,6 C 11,3 km/h (2 Bft)
15.12.2015 18:36 5,7 C 96 % 1025,3 hPa 0,0 l/m 6,5 km/h (2 Bft) O-NO 64 0 min 0 W/m 5,1 C 5,6 C 17,7 km/h (3 Bft)
15.12.2015 18:39 5,7 C 96 % 1025,3 hPa 0,0 l/m 5,9 km/h (2 Bft) O-NO 71 0 min 0 W/m 5,1 C 5,7 C 12,9 km/h (3 Bft)
15.12.2015 18:42 5,7 C 96 % 1025,4 hPa 0,0 l/m 4,4 km/h (1 Bft) O 98 0 min 0 W/m 5,1 C 5,7 C 11,3 km/h (2 Bft)
15.12.2015 18:45 5,7 C 96 % 1025,4 hPa 0,0 l/m 6,3 km/h (2 Bft) NO 53 0 min 0 W/m 5,1 C 5,7 C 12,9 km/h (3 Bft)
15.12.2015 18:48 5,7 C 96 % 1025,4 hPa 0,0 l/m 4,3 km/h (1 Bft) NO 36 0 min 0 W/m 5,1 C 5,7 C 12,9 km/h (3 Bft)
15.12.2015 18:51 5,7 C 96 % 1025,5 hPa 0,0 l/m 4,2 km/h (1 Bft) NO 40 0 min 0 W/m 5,1 C 5,7 C 9,7 km/h (2 Bft)
15.12.2015 18:54 5,7 C 96 % 1025,4 hPa 0,0 l/m 7,3 km/h (2 Bft) SO 128 0 min 0 W/m 5,1 C 4,9 C 14,5 km/h (3 Bft)
15.12.2015 18:57 5,7 C 96 % 1025,4 hPa 0,0 l/m 6,5 km/h (2 Bft) NO 47 0 min 0 W/m 5,1 C 5,6 C 14,5 km/h (3 Bft)
15.12.2015 19:00 5,8 C 96 % 1025,5 hPa 0,0 l/m 4,2 km/h (1 Bft) O-SO 113 0 min 0 W/m 5,2 C 5,8 C 8,0 km/h (2 Bft)
15.12.2015 19:03 5,7 C 96 % 1025,5 hPa 0,0 l/m 7,0 km/h (2 Bft) O-SO 117 0 min 0 W/m 5,1 C 5,2 C 16,1 km/h (3 Bft)
15.12.2015 19:06 5,8 C 96 % 1025,6 hPa 0,0 l/m 7,6 km/h (2 Bft) SO 140 0 min 0 W/m 5,2 C 4,8 C 16,1 km/h (3 Bft)
15.12.2015 19:09 5,8 C 96 % 1025,6 hPa 0,0 l/m 5,1 km/h (1 Bft) O 83 0 min 0 W/m 5,2 C 5,8 C 9,7 km/h (2 Bft)
15.12.2015 19:12 5,8 C 96 % 1025,5 hPa 0,0 l/m 4,4 km/h (1 Bft) SO 138 0 min 0 W/m 5,2 C 5,8 C 9,7 km/h (2 Bft)
15.12.2015 19:15 5,8 C 96 % 1025,5 hPa 0,0 l/m 6,1 km/h (2 Bft) O-SO 106 0 min 0 W/m 5,2 C 5,8 C 20,9 km/h (4 Bft)
15.12.2015 19:18 5,8 C 96 % 1025,5 hPa 0,0 l/m 4,7 km/h (1 Bft) S-SO 147 0 min 0 W/m 5,2 C 5,8 C 12,9 km/h (3 Bft)
15.12.2015 19:21 5,8 C 96 % 1025,6 hPa 0,0 l/m 3,4 km/h (1 Bft) O-NO 57 0 min 0 W/m 5,2 C 5,8 C 11,3 km/h (2 Bft)
15.12.2015 19:24 5,8 C 96 % 1025,6 hPa 0,0 l/m 5,1 km/h (1 Bft) O-SO 116 0 min 0 W/m 5,2 C 5,8 C 12,9 km/h (3 Bft)
15.12.2015 19:27 5,8 C 96 % 1025,6 hPa 0,0 l/m 4,8 km/h (1 Bft) NO 36 0 min 0 W/m 5,2 C 5,8 C 11,3 km/h (2 Bft)
15.12.2015 19:30 5,8 C 96 % 1025,6 hPa 0,0 l/m 3,2 km/h (1 Bft) O-SO 103 0 min 0 W/m 5,2 C 5,8 C 9,7 km/h (2 Bft)
15.12.2015 19:33 5,8 C 96 % 1025,7 hPa 0,0 l/m 4,4 km/h (1 Bft) S-SO 156 0 min 0 W/m 5,2 C 5,8 C 11,3 km/h (2 Bft)
15.12.2015 19:36 5,8 C 96 % 1025,6 hPa 0,0 l/m 9,9 km/h (2 Bft) NO 41 0 min 0 W/m 5,2 C 3,0 C 19,3 km/h (3 Bft)
15.12.2015 19:39 5,8 C 96 % 1025,7 hPa 0,0 l/m 6,4 km/h (2 Bft) SO 141 0 min 0 W/m 5,2 C 5,8 C 14,5 km/h (3 Bft)
15.12.2015 19:42 5,8 C 96 % 1025,7 hPa 0,0 l/m 5,8 km/h (2 Bft) O-SO 103 0 min 0 W/m 5,2 C 5,8 C 14,5 km/h (3 Bft)
15.12.2015 19:45 5,8 C 96 % 1025,8 hPa 0,0 l/m 7,0 km/h (2 Bft) SO 131 0 min 0 W/m 5,2 C 5,3 C 16,1 km/h (3 Bft)
15.12.2015 19:48 5,8 C 96 % 1025,8 hPa 0,0 l/m 7,7 km/h (2 Bft) S-SO 149 0 min 0 W/m 5,2 C 4,7 C 17,7 km/h (3 Bft)
15.12.2015 19:51 5,8 C 95 % 1025,7 hPa 0,0 l/m 7,1 km/h (2 Bft) N 360 0 min 0 W/m 5,1 C 5,2 C 17,7 km/h (3 Bft)
15.12.2015 19:54 5,8 C 95 % 1025,7 hPa 0,0 l/m 3,7 km/h (1 Bft) NO 55 0 min 0 W/m 5,1 C 5,8 C 6,4 km/h (2 Bft)
15.12.2015 19:57 5,8 C 95 % 1025,7 hPa 0,0 l/m 5,2 km/h (1 Bft) S-SO 166 0 min 0 W/m 5,1 C 5,8 C 11,3 km/h (2 Bft)
15.12.2015 20:00 5,9 C 95 % 1025,7 hPa 0,0 l/m 6,3 km/h (2 Bft) N-NO 26 0 min 0 W/m 5,2 C 5,9 C 12,9 km/h (3 Bft)
15.12.2015 20:03 5,9 C 95 % 1025,8 hPa 0,0 l/m 5,3 km/h (1 Bft) NO 40 0 min 0 W/m 5,2 C 5,9 C 16,1 km/h (3 Bft)
15.12.2015 20:06 5,9 C 95 % 1025,8 hPa 0,0 l/m 5,7 km/h (2 Bft) O-NO 59 0 min 0 W/m 5,2 C 5,9 C 14,5 km/h (3 Bft)
15.12.2015 20:09 5,9 C 95 % 1025,8 hPa 0,0 l/m 7,1 km/h (2 Bft) O-NO 74 0 min 0 W/m 5,2 C 5,3 C 14,5 km/h (3 Bft)
15.12.2015 20:12 5,9 C 95 % 1025,8 hPa 0,0 l/m 7,6 km/h (2 Bft) NO 44 0 min 0 W/m 5,2 C 4,9 C 17,7 km/h (3 Bft)
15.12.2015 20:15 5,9 C 95 % 1025,8 hPa 0,0 l/m 7,7 km/h (2 Bft) NO 51 0 min 0 W/m 5,2 C 4,8 C 17,7 km/h (3 Bft)
15.12.2015 20:18 5,8 C 95 % 1025,8 hPa 0,0 l/m 6,9 km/h (2 Bft) W-SW 241 0 min 0 W/m 5,1 C 5,4 C 24,1 km/h (4 Bft)
15.12.2015 20:21 5,8 C 94 % 1025,8 hPa 0,0 l/m 7,0 km/h (2 Bft) NO 38 0 min 0 W/m 4,9 C 5,3 C 12,9 km/h (3 Bft)
15.12.2015 20:24 5,8 C 94 % 1025,8 hPa 0,0 l/m 6,7 km/h (2 Bft) O-NO 60 0 min 0 W/m 4,9 C 5,6 C 16,1 km/h (3 Bft)
15.12.2015 20:27 5,7 C 94 % 1025,9 hPa 0,0 l/m 9,0 km/h (2 Bft) O 89 0 min 0 W/m 4,8 C 3,6 C 17,7 km/h (3 Bft)
15.12.2015 20:30 5,7 C 94 % 1025,8 hPa 0,0 l/m 6,7 km/h (2 Bft) NO 48 0 min 0 W/m 4,8 C 5,5 C 14,5 km/h (3 Bft)
15.12.2015 20:33 5,6 C 95 % 1025,9 hPa 0,0 l/m 5,9 km/h (2 Bft) O 91 0 min 0 W/m 4,9 C 5,6 C 14,5 km/h (3 Bft)
15.12.2015 20:36 5,6 C 95 % 1026,0 hPa 0,0 l/m 7,7 km/h (2 Bft) NO 55 0 min 0 W/m 4,9 C 4,5 C 16,1 km/h (3 Bft)
15.12.2015 20:39 5,6 C 95 % 1026,0 hPa 0,0 l/m 6,1 km/h (2 Bft) O-NO 61 0 min 0 W/m 4,9 C 5,6 C 11,3 km/h (2 Bft)
15.12.2015 20:42 5,5 C 95 % 1025,9 hPa 0,0 l/m 7,7 km/h (2 Bft) O 90 0 min 0 W/m 4,8 C 4,4 C 19,3 km/h (3 Bft)
15.12.2015 20:45 5,4 C 95 % 1025,8 hPa 0,0 l/m 7,3 km/h (2 Bft) NO 53 0 min 0 W/m 4,7 C 4,6 C 14,5 km/h (3 Bft)
15.12.2015 20:48 5,4 C 94 % 1025,9 hPa 0,0 l/m 7,9 km/h (2 Bft) O-NO 62 0 min 0 W/m 4,5 C 4,1 C 17,7 km/h (3 Bft)
15.12.2015 20:51 5,4 C 94 % 1025,8 hPa 0,0 l/m 6,0 km/h (2 Bft) O-NO 59 0 min 0 W/m 4,5 C 5,4 C 14,5 km/h (3 Bft)
15.12.2015 20:54 5,3 C 95 % 1025,7 hPa 0,0 l/m 6,3 km/h (2 Bft) NO 49 0 min 0 W/m 4,6 C 5,3 C 14,5 km/h (3 Bft)
15.12.2015 20:57 5,3 C 95 % 1025,7 hPa 0,0 l/m 9,0 km/h (2 Bft) N-NW 344 0 min 0 W/m 4,6 C 3,1 C 17,7 km/h (3 Bft)
15.12.2015 21:00 5,3 C 95 % 1025,6 hPa 0,0 l/m 7,8 km/h (2 Bft) O-NO 61 0 min 0 W/m 4,6 C 4,1 C 16,1 km/h (3 Bft)
15.12.2015 21:03 5,3 C 95 % 1025,6 hPa 0,0 l/m 5,6 km/h (2 Bft) O-SO 105 0 min 0 W/m 4,6 C 5,3 C 14,5 km/h (3 Bft)
15.12.2015 21:06 5,3 C 95 % 1025,7 hPa 0,0 l/m 7,9 km/h (2 Bft) NO 52 0 min 0 W/m 4,6 C 4,0 C 20,9 km/h (4 Bft)
15.12.2015 21:09 5,3 C 95 % 1025,7 hPa 0,0 l/m 6,5 km/h (2 Bft) O-NO 58 0 min 0 W/m 4,6 C 5,2 C 16,1 km/h (3 Bft)
15.12.2015 21:12 5,2 C 95 % 1025,7 hPa 0,0 l/m 5,0 km/h (1 Bft) O 94 0 min 0 W/m 4,5 C 5,2 C 11,3 km/h (2 Bft)
15.12.2015 21:15 5,2 C 95 % 1025,6 hPa 0,0 l/m 5,3 km/h (1 Bft) O-NO 69 0 min 0 W/m 4,5 C 5,2 C 12,9 km/h (3 Bft)
15.12.2015 21:18 5,2 C 95 % 1025,6 hPa 0,0 l/m 9,4 km/h (2 Bft) N-NO 23 0 min 0 W/m 4,5 C 2,7 C 19,3 km/h (3 Bft)
15.12.2015 21:21 5,2 C 95 % 1025,6 hPa 0,0 l/m 7,9 km/h (2 Bft) O-NO 59 0 min 0 W/m 4,5 C 3,9 C 17,7 km/h (3 Bft)
15.12.2015 21:24 5,2 C 95 % 1025,6 hPa 0,0 l/m 5,8 km/h (2 Bft) SO 134 0 min 0 W/m 4,5 C 5,2 C 14,5 km/h (3 Bft)
15.12.2015 21:27 5,2 C 95 % 1025,6 hPa 0,0 l/m 6,1 km/h (2 Bft) SO 140 0 min 0 W/m 4,5 C 5,2 C 12,9 km/h (3 Bft)
15.12.2015 21:30 5,2 C 95 % 1025,7 hPa 0,0 l/m 5,3 km/h (1 Bft) O 94 0 min 0 W/m 4,5 C 5,2 C 12,9 km/h (3 Bft)
15.12.2015 21:33 5,2 C 95 % 1025,7 hPa 0,0 l/m 6,2 km/h (2 Bft) O-SO 109 0 min 0 W/m 4,5 C 5,2 C 17,7 km/h (3 Bft)
15.12.2015 21:36 5,2 C 95 % 1025,6 hPa 0,0 l/m 5,9 km/h (2 Bft) N-NO 27 0 min 0 W/m 4,5 C 5,2 C 14,5 km/h (3 Bft)
15.12.2015 21:39 5,1 C 95 % 1025,7 hPa 0,0 l/m 6,8 km/h (2 Bft) O-SO 117 0 min 0 W/m 4,4 C 4,8 C 14,5 km/h (3 Bft)
15.12.2015 21:42 5,1 C 95 % 1025,7 hPa 0,0 l/m 6,9 km/h (2 Bft) O 98 0 min 0 W/m 4,4 C 4,7 C 20,9 km/h (4 Bft)
15.12.2015 21:45 5,1 C 95 % 1025,6 hPa 0,0 l/m 7,5 km/h (2 Bft) NO 39 0 min 0 W/m 4,4 C 4,1 C 14,5 km/h (3 Bft)
15.12.2015 21:48 5,1 C 95 % 1025,6 hPa 0,0 l/m 5,9 km/h (2 Bft) NW 314 0 min 0 W/m 4,4 C 5,1 C 16,1 km/h (3 Bft)
15.12.2015 21:51 5,1 C 95 % 1025,6 hPa 0,0 l/m 6,5 km/h (2 Bft) NO 53 0 min 0 W/m 4,4 C 5,0 C 14,5 km/h (3 Bft)
15.12.2015 21:54 5,1 C 95 % 1025,5 hPa 0,0 l/m 5,6 km/h (2 Bft) O-SO 110 0 min 0 W/m 4,4 C 5,1 C 14,5 km/h (3 Bft)
15.12.2015 21:57 5,0 C 95 % 1025,6 hPa 0,0 l/m 5,7 km/h (2 Bft) O 88 0 min 0 W/m 4,3 C 5,0 C 16,1 km/h (3 Bft)
15.12.2015 22:00 5,0 C 95 % 1025,6 hPa 0,0 l/m 8,4 km/h (2 Bft) O-NO 65 0 min 0 W/m 4,3 C 3,3 C 19,3 km/h (3 Bft)
15.12.2015 22:03 4,9 C 95 % 1025,6 hPa 0,0 l/m 6,9 km/h (2 Bft) O-SO 112 0 min 0 W/m 4,2 C 4,5 C 14,5 km/h (3 Bft)
15.12.2015 22:06 4,9 C 95 % 1025,6 hPa 0,0 l/m 8,7 km/h (2 Bft) O-NO 67 0 min 0 W/m 4,2 C 2,9 C 16,1 km/h (3 Bft)
15.12.2015 22:09 4,9 C 95 % 1025,6 hPa 0,0 l/m 7,8 km/h (2 Bft) O-NO 62 0 min 0 W/m 4,2 C 3,7 C 20,9 km/h (4 Bft)
15.12.2015 22:12 4,9 C 95 % 1025,6 hPa 0,0 l/m 7,8 km/h (2 Bft) SO 139 0 min 0 W/m 4,2 C 3,7 C 19,3 km/h (3 Bft)
15.12.2015 22:15 4,9 C 95 % 1025,5 hPa 0,0 l/m 8,3 km/h (2 Bft) SO 131 0 min 0 W/m 4,2 C 3,3 C 16,1 km/h (3 Bft)
15.12.2015 22:18 4,9 C 95 % 1025,5 hPa 0,0 l/m 5,1 km/h (1 Bft) O 84 0 min 0 W/m 4,2 C 4,9 C 9,7 km/h (2 Bft)
15.12.2015 22:21 4,9 C 95 % 1025,5 hPa 0,0 l/m 7,1 km/h (2 Bft) O-SO 108 0 min 0 W/m 4,2 C 4,3 C 14,5 km/h (3 Bft)
15.12.2015 22:24 4,9 C 95 % 1025,5 hPa 0,0 l/m 7,3 km/h (2 Bft) O-SO 113 0 min 0 W/m 4,2 C 4,1 C 20,9 km/h (4 Bft)
15.12.2015 22:27 4,9 C 96 % 1025,5 hPa 0,0 l/m 6,9 km/h (2 Bft) N-NO 26 0 min 0 W/m 4,3 C 4,5 C 19,3 km/h (3 Bft)
15.12.2015 22:30 4,9 C 96 % 1025,5 hPa 0,0 l/m 8,1 km/h (2 Bft) NO 53 0 min 0 W/m 4,3 C 3,4 C 17,7 km/h (3 Bft)
15.12.2015 22:33 4,9 C 96 % 1025,6 hPa 0,0 l/m 7,6 km/h (2 Bft) O-SO 108 0 min 0 W/m 4,3 C 3,8 C 17,7 km/h (3 Bft)
15.12.2015 22:36 4,9 C 96 % 1025,6 hPa 0,0 l/m 7,2 km/h (2 Bft) O-NO 57 0 min 0 W/m 4,3 C 4,2 C 14,5 km/h (3 Bft)
15.12.2015 22:39 4,9 C 96 % 1025,5 hPa 0,0 l/m 7,4 km/h (2 Bft) O-SO 110 0 min 0 W/m 4,3 C 4,0 C 17,7 km/h (3 Bft)
15.12.2015 22:42 4,9 C 96 % 1025,5 hPa 0,0 l/m 5,6 km/h (2 Bft) O-SO 114 0 min 0 W/m 4,3 C 4,9 C 12,9 km/h (3 Bft)
15.12.2015 22:45 4,9 C 96 % 1025,6 hPa 0,0 l/m 5,5 km/h (2 Bft) NO 53 0 min 0 W/m 4,3 C 4,9 C 12,9 km/h (3 Bft)
15.12.2015 22:48 4,8 C 96 % 1025,6 hPa 0,0 l/m 7,5 km/h (2 Bft) O-SO 107 0 min 0 W/m 4,2 C 3,8 C 17,7 km/h (3 Bft)
15.12.2015 22:51 4,9 C 96 % 1025,6 hPa 0,0 l/m 7,4 km/h (2 Bft) NO 50 0 min 0 W/m 4,3 C 4,0 C 16,1 km/h (3 Bft)
15.12.2015 22:54 4,8 C 96 % 1025,5 hPa 0,0 l/m 7,4 km/h (2 Bft) O 83 0 min 0 W/m 4,2 C 3,9 C 14,5 km/h (3 Bft)
15.12.2015 22:57 4,8 C 96 % 1025,4 hPa 0,0 l/m 6,1 km/h (2 Bft) N-NO 27 0 min 0 W/m 4,2 C 4,8 C 12,9 km/h (3 Bft)
15.12.2015 23:00 4,8 C 96 % 1025,4 hPa 0,0 l/m 5,9 km/h (2 Bft) O-NO 69 0 min 0 W/m 4,2 C 4,8 C 12,9 km/h (3 Bft)
15.12.2015 23:03 4,8 C 96 % 1025,4 hPa 0,0 l/m 7,8 km/h (2 Bft) N-NO 31 0 min 0 W/m 4,2 C 3,6 C 16,1 km/h (3 Bft)
15.12.2015 23:06 4,8 C 96 % 1025,3 hPa 0,0 l/m 4,4 km/h (1 Bft) O-NO 67 0 min 0 W/m 4,2 C 4,8 C 8,0 km/h (2 Bft)
15.12.2015 23:09 4,8 C 96 % 1025,4 hPa 0,0 l/m 4,2 km/h (1 Bft) O-NO 60 0 min 0 W/m 4,2 C 4,8 C 11,3 km/h (2 Bft)
15.12.2015 23:12 4,8 C 96 % 1025,4 hPa 0,0 l/m 5,3 km/h (1 Bft) O-NO 78 0 min 0 W/m 4,2 C 4,8 C 12,9 km/h (3 Bft)
15.12.2015 23:15 4,8 C 96 % 1025,5 hPa 0,0 l/m 4,0 km/h (1 Bft) O-NO 68 0 min 0 W/m 4,2 C 4,8 C 11,3 km/h (2 Bft)
15.12.2015 23:18 4,8 C 96 % 1025,5 hPa 0,0 l/m 3,9 km/h (1 Bft) NO 40 0 min 0 W/m 4,2 C 4,8 C 6,4 km/h (2 Bft)
15.12.2015 23:21 4,8 C 96 % 1025,5 hPa 0,0 l/m 4,9 km/h (1 Bft) O-NO 58 0 min 0 W/m 4,2 C 4,8 C 11,3 km/h (2 Bft)
15.12.2015 23:24 4,8 C 96 % 1025,6 hPa 0,0 l/m 6,8 km/h (2 Bft) O 101 0 min 0 W/m 4,2 C 4,5 C 16,1 km/h (3 Bft)
15.12.2015 23:27 4,8 C 96 % 1025,6 hPa 0,0 l/m 3,7 km/h (1 Bft) N-NO 30 0 min 0 W/m 4,2 C 4,8 C 9,7 km/h (2 Bft)
15.12.2015 23:30 4,8 C 96 % 1025,5 hPa 0,0 l/m 6,4 km/h (2 Bft) NO 38 0 min 0 W/m 4,2 C 4,8 C 14,5 km/h (3 Bft)
15.12.2015 23:33 4,8 C 96 % 1025,6 hPa 0,0 l/m 4,2 km/h (1 Bft) O-SO 104 0 min 0 W/m 4,2 C 4,8 C 14,5 km/h (3 Bft)
15.12.2015 23:36 4,8 C 96 % 1025,6 hPa 0,0 l/m 5,6 km/h (2 Bft) O-SO 121 0 min 0 W/m 4,2 C 4,8 C 14,5 km/h (3 Bft)
15.12.2015 23:39 4,8 C 96 % 1025,5 hPa 0,0 l/m 5,0 km/h (1 Bft) O-SO 112 0 min 0 W/m 4,2 C 4,8 C 12,9 km/h (3 Bft)
15.12.2015 23:42 4,8 C 96 % 1025,6 hPa 0,0 l/m 4,9 km/h (1 Bft) S-SO 153 0 min 0 W/m 4,2 C 4,8 C 12,9 km/h (3 Bft)
15.12.2015 23:45 4,8 C 96 % 1025,6 hPa 0,0 l/m 5,5 km/h (2 Bft) O-SO 118 0 min 0 W/m 4,2 C 4,8 C 14,5 km/h (3 Bft)
15.12.2015 23:48 4,8 C 96 % 1025,5 hPa 0,0 l/m 4,4 km/h (1 Bft) O 90 0 min 0 W/m 4,2 C 4,8 C 11,3 km/h (2 Bft)
15.12.2015 23:51 4,8 C 96 % 1025,6 hPa 0,0 l/m 5,6 km/h (2 Bft) O-NO 78 0 min 0 W/m 4,2 C 4,8 C 11,3 km/h (2 Bft)
15.12.2015 23:54 4,8 C 96 % 1025,6 hPa 0,0 l/m 4,4 km/h (1 Bft) O 99 0 min 0 W/m 4,2 C 4,8 C 17,7 km/h (3 Bft)
15.12.2015 23:57 4,8 C 96 % 1025,5 hPa 0,0 l/m 3,6 km/h (1 Bft) O 89 0 min 0 W/m 4,2 C 4,8 C 12,9 km/h (3 Bft)
_ Min-Zeit 22:48 20:21 00:00 - 11:15 - - - - 22:03 21:18 11:15
Minimum _ 4,8 C 94 % 1018,1 hPa - 0,0 km/h (0 Bft) - - - - 4,2 C 2,7 C 0,0 km/h (0 Bft)
_ Max-Zeit 11:36 01:51 20:36 00:00 19:36 - - 00:00 12:00 11:36 11:36 20:18
Maximum _ 7,5 C 97 % 1026,0 hPa 0,0 l/m 9,9 km/h
NO (2 Bft)
- - 0 min 72 W/m 6,9 C 7,5 C 24,1 km/h
NO (4 Bft)
Durchschnitt _ 6,2 C 96 % 1022,2 hPa #0,0 l/m 4,5 km/h (1 Bft) SW - #0 min. 33 W/m 5,6 C 6,0 C 9,2 km/h (2 Bft)
copyright by Holger Just